Time,TemperatureF,DewpointF,PressureIn,WindDirection,WindDirectionDegrees,WindSpeedMPH,WindSpeedGustMPH,Humidity,HourlyPrecipIn,Conditions,Clouds,dailyrainin,SoftwareType,DateUTC
2013-02-01 00:07:00,29.2,16.6,29.66,West,269,6.0,6.0,59,0.00,,,0.00,Wunderground v.1.15,2013-02-01 05:07:00,
2013-02-01 00:08:00,29.2,16.6,29.66,WSW,256,3.0,7.0,59,0.00,,,0.00,Wunderground v.1.15,2013-02-01 05:08:00,
2013-02-01 00:11:00,29.2,16.2,29.66,WSW,250,11.0,11.0,58,0.00,,,0.00,Wunderground v.1.15,2013-02-01 05:11:00,
2013-02-01 00:12:00,29.2,16.2,29.67,South,186,9.0,11.0,58,0.00,,,0.00,Wunderground v.1.15,2013-02-01 05:12:00,
2013-02-01 00:13:00,29.2,15.8,29.67,SW,233,5.0,11.0,57,0.00,,,0.00,Wunderground v.1.15,2013-02-01 05:13:00,
2013-02-01 00:14:00,29.2,15.8,29.66,West,274,5.0,11.0,57,0.00,,,0.00,Wunderground v.1.15,2013-02-01 05:14:00,
2013-02-01 00:16:00,29.2,15.8,29.66,WSW,246,2.0,11.0,57,0.00,,,0.00,Wunderground v.1.15,2013-02-01 05:16:00,
2013-02-01 00:20:00,29.2,16.2,29.67,WSW,248,1.0,5.0,58,0.00,,,0.00,Wunderground v.1.15,2013-02-01 05:20:00,
2013-02-01 00:22:00,29.1,16.1,29.67,WSW,246,12.0,12.0,58,0.00,,,0.00,Wunderground v.1.15,2013-02-01 05:22:00,
2013-02-01 00:24:00,29.2,15.4,29.67,WNW,287,4.0,12.0,56,0.00,,,0.00,Wunderground v.1.15,2013-02-01 05:24:00,
2013-02-01 00:27:00,29.2,15.4,29.67,WNW,302,3.0,5.0,56,0.00,,,0.00,Wunderground v.1.15,2013-02-01 05:27:00,
2013-02-01 00:28:00,29.2,15.4,29.67,WSW,247,11.0,11.0,56,0.00,,,0.00,Wunderground v.1.15,2013-02-01 05:28:00,
2013-02-01 00:29:00,29.2,15.4,29.67,West,262,6.0,11.0,56,0.00,,,0.00,Wunderground v.1.15,2013-02-01 05:29:00,
2013-02-01 00:30:00,29.2,15.4,29.67,West,263,3.0,11.0,56,0.00,,,0.00,Wunderground v.1.15,2013-02-01 05:30:00,
2013-02-01 00:36:00,29.0,16.1,29.67,WNW,284,3.0,11.0,58,0.00,,,0.00,Wunderground v.1.15,2013-02-01 05:36:00,
2013-02-01 00:37:00,29.0,16.1,29.67,WSW,253,5.0,5.0,58,0.00,,,0.00,Wunderground v.1.15,2013-02-01 05:37:00,
2013-02-01 00:40:00,28.8,15.9,29.68,WSW,239,10.0,10.0,58,0.00,,,0.00,Wunderground v.1.15,2013-02-01 05:40:00,
2013-02-01 00:41:00,28.8,15.9,29.68,West,266,3.0,10.0,58,0.00,,,0.00,Wunderground v.1.15,2013-02-01 05:41:00,
2013-02-01 00:46:00,28.7,16.2,29.68,WSW,246,4.0,10.0,59,0.00,,,0.00,Wunderground v.1.15,2013-02-01 05:46:00,
2013-02-01 00:47:00,28.7,16.2,29.68,West,260,2.0,6.0,59,0.00,,,0.00,Wunderground v.1.15,2013-02-01 05:47:00,
2013-02-01 00:48:00,28.6,16.1,29.68,WSW,249,5.0,6.0,59,0.00,,,0.00,Wunderground v.1.15,2013-02-01 05:48:00,
2013-02-01 00:51:00,28.6,16.1,29.68,WSW,244,1.0,6.0,59,0.00,,,0.00,Wunderground v.1.15,2013-02-01 05:51:00,
2013-02-01 00:53:00,28.5,15.6,29.68,SW,225,11.0,11.0,58,0.00,,,0.00,Wunderground v.1.15,2013-02-01 05:53:00,
2013-02-01 00:55:00,28.6,15.3,29.68,West,261,6.0,11.0,57,0.00,,,0.00,Wunderground v.1.15,2013-02-01 05:55:00,
2013-02-01 00:58:00,28.5,15.6,29.68,WSW,258,4.0,4.0,58,0.00,,,0.00,Wunderground v.1.15,2013-02-01 05:58:00,
2013-02-01 01:00:00,28.5,15.2,29.68,WSW,252,9.0,9.0,57,0.00,,,0.00,Wunderground v.1.15,2013-02-01 06:00:00,
2013-02-01 01:01:00,28.5,14.8,29.68,West,265,7.0,9.0,56,0.00,,,0.00,Wunderground v.1.15,2013-02-01 06:01:00,
2013-02-01 01:05:00,28.6,14.5,29.68,WSW,244,3.0,9.0,55,0.00,,,0.00,Wunderground v.1.15,2013-02-01 06:05:00,
2013-02-01 01:07:00,28.5,14.4,29.68,WSW,252,3.0,5.0,55,0.00,,,0.00,Wunderground v.1.15,2013-02-01 06:07:00,
2013-02-01 01:08:00,28.5,14.4,29.68,West,276,1.0,5.0,55,0.00,,,0.00,Wunderground v.1.15,2013-02-01 06:08:00,
2013-02-01 01:10:00,28.5,13.9,29.68,SSW,209,3.0,5.0,54,0.00,,,0.00,Wunderground v.1.15,2013-02-01 06:10:00,
2013-02-01 01:11:00,28.6,14.0,29.68,West,261,2.0,5.0,54,0.00,,,0.00,Wunderground v.1.15,2013-02-01 06:11:00,
2013-02-01 01:14:00,28.6,14.0,29.68,WSW,247,2.0,6.0,54,0.00,,,0.00,Wunderground v.1.15,2013-02-01 06:14:00,
2013-02-01 01:19:00,28.6,14.0,29.69,West,277,1.0,5.0,54,0.00,,,0.00,Wunderground v.1.15,2013-02-01 06:19:00,
2013-02-01 01:21:00,28.6,13.6,29.69,SW,225,4.0,6.0,53,0.00,,,0.00,Wunderground v.1.15,2013-02-01 06:21:00,
2013-02-01 01:22:00,28.6,13.6,29.69,SW,230,4.0,6.0,53,0.00,,,0.00,Wunderground v.1.15,2013-02-01 06:22:00,
2013-02-01 01:26:00,28.7,13.3,29.69,SW,234,8.0,8.0,52,0.00,,,0.00,Wunderground v.1.15,2013-02-01 06:26:00,
2013-02-01 01:27:00,28.7,13.7,29.69,SW,234,6.0,6.0,53,0.00,,,0.00,Wunderground v.1.15,2013-02-01 06:27:00,
2013-02-01 01:28:00,28.7,13.3,29.69,WNW,290,4.0,6.0,52,0.00,,,0.00,Wunderground v.1.15,2013-02-01 06:28:00,
2013-02-01 01:31:00,28.7,13.7,29.69,WSW,244,5.0,11.0,53,0.00,,,0.00,Wunderground v.1.15,2013-02-01 06:31:00,
2013-02-01 01:33:00,28.8,13.8,29.69,WSW,257,11.0,11.0,53,0.00,,,0.00,Wunderground v.1.15,2013-02-01 06:33:00,
2013-02-01 01:35:00,28.8,13.8,29.69,West,261,6.0,11.0,53,0.00,,,0.00,Wunderground v.1.15,2013-02-01 06:35:00,
2013-02-01 01:36:00,28.9,14.3,29.69,NW,305,6.0,11.0,54,0.00,,,0.00,Wunderground v.1.15,2013-02-01 06:36:00,
2013-02-01 01:41:00,28.9,14.3,29.70,West,263,7.0,10.0,54,0.00,,,0.00,Wunderground v.1.15,2013-02-01 06:41:00,
2013-02-01 01:42:00,29.0,14.4,29.69,WSW,244,9.0,10.0,54,0.00,,,0.00,Wunderground v.1.15,2013-02-01 06:42:00,
2013-02-01 01:43:00,29.0,14.4,29.69,SW,236,9.0,10.0,54,0.00,,,0.00,Wunderground v.1.15,2013-02-01 06:43:00,
2013-02-01 01:45:00,29.0,14.4,29.70,NW,308,2.0,10.0,54,0.00,,,0.00,Wunderground v.1.15,2013-02-01 06:45:00,
2013-02-01 01:48:00,28.9,14.7,29.69,West,267,6.0,7.0,55,0.00,,,0.00,Wunderground v.1.15,2013-02-01 06:48:00,
2013-02-01 01:49:00,28.9,14.7,29.70,West,259,7.0,7.0,55,0.00,,,0.00,Wunderground v.1.15,2013-02-01 06:49:00,
2013-02-01 01:52:00,28.9,15.2,29.70,West,263,11.0,11.0,56,0.00,,,0.00,Wunderground v.1.15,2013-02-01 06:52:00,
2013-02-01 01:53:00,28.9,14.7,29.70,WSW,250,4.0,11.0,55,0.00,,,0.00,Wunderground v.1.15,2013-02-01 06:53:00,
2013-02-01 01:55:00,28.9,15.2,29.70,North,349,5.0,11.0,56,0.00,,,0.00,Wunderground v.1.15,2013-02-01 06:55:00,
2013-02-01 01:58:00,28.9,15.2,29.70,West,274,5.0,6.0,56,0.00,,,0.00,Wunderground v.1.15,2013-02-01 06:58:00,
2013-02-01 02:02:00,28.9,15.2,29.70,SW,235,3.0,6.0,56,0.00,,,0.00,Wunderground v.1.15,2013-02-01 07:02:00,
2013-02-01 02:04:00,28.9,15.6,29.70,SW,217,3.0,6.0,57,0.00,,,0.00,Wunderground v.1.15,2013-02-01 07:04:00,
2013-02-01 02:06:00,28.8,15.9,29.71,SW,234,6.0,6.0,58,0.00,,,0.00,Wunderground v.1.15,2013-02-01 07:06:00,
2013-02-01 02:07:00,28.7,15.8,29.71,West,273,5.0,5.0,58,0.00,,,0.00,Wunderground v.1.15,2013-02-01 07:07:00,
2013-02-01 02:08:00,28.7,15.8,29.71,NW,304,12.0,12.0,58,0.00,,,0.00,Wunderground v.1.15,2013-02-01 07:08:00,
2013-02-01 02:10:00,28.7,15.8,29.72,NNW,331,6.0,12.0,58,0.00,,,0.00,Wunderground v.1.15,2013-02-01 07:10:00,
2013-02-01 02:11:00,28.7,15.8,29.71,West,281,6.0,12.0,58,0.00,,,0.00,Wunderground v.1.15,2013-02-01 07:11:00,
2013-02-01 02:16:00,28.6,16.1,29.72,SW,236,11.0,12.0,59,0.00,,,0.00,Wunderground v.1.15,2013-02-01 07:16:00,
2013-02-01 02:17:00,28.5,16.0,29.71,WSW,239,3.0,7.0,59,0.00,,,0.00,Wunderground v.1.15,2013-02-01 07:17:00,
2013-02-01 02:21:00,28.4,16.3,29.72,West,262,3.0,10.0,60,0.00,,,0.00,Wunderground v.1.15,2013-02-01 07:21:00,
2013-02-01 02:22:00,28.4,16.3,29.72,WSW,255,5.0,10.0,60,0.00,,,0.00,Wunderground v.1.15,2013-02-01 07:22:00,
2013-02-01 02:23:00,28.3,16.2,29.72,WSW,258,4.0,10.0,60,0.00,,,0.00,Wunderground v.1.15,2013-02-01 07:23:00,
2013-02-01 02:26:00,28.3,16.6,29.71,West,277,3.0,11.0,61,0.00,,,0.00,Wunderground v.1.15,2013-02-01 07:26:00,
2013-02-01 02:27:00,28.3,16.6,29.71,East,99,3.0,5.0,61,0.00,,,0.00,Wunderground v.1.15,2013-02-01 07:27:00,
2013-02-01 02:29:00,28.2,16.5,29.71,South,176,7.0,13.0,61,0.00,,,0.00,Wunderground v.1.15,2013-02-01 07:29:00,
2013-02-01 02:31:00,28.2,16.8,29.72,SW,234,3.0,13.0,62,0.00,,,0.00,Wunderground v.1.15,2013-02-01 07:31:00,
2013-02-01 02:32:00,28.2,16.8,29.72,West,263,3.0,13.0,62,0.00,,,0.00,Wunderground v.1.15,2013-02-01 07:32:00,
2013-02-01 02:34:00,28.1,16.7,29.72,WSW,242,4.0,13.0,62,0.00,,,0.00,Wunderground v.1.15,2013-02-01 07:34:00,
2013-02-01 02:36:00,28.1,16.7,29.72,SSW,201,7.0,13.0,62,0.00,,,0.00,Wunderground v.1.15,2013-02-01 07:36:00,
2013-02-01 02:37:00,28.1,16.7,29.72,NW,323,2.0,5.0,62,0.00,,,0.00,Wunderground v.1.15,2013-02-01 07:37:00,
2013-02-01 02:38:00,28.1,16.7,29.72,West,268,2.0,8.0,62,0.00,,,0.00,Wunderground v.1.15,2013-02-01 07:38:00,
2013-02-01 02:39:00,28.1,16.4,29.72,West,262,2.0,8.0,61,0.00,,,0.00,Wunderground v.1.15,2013-02-01 07:39:00,
2013-02-01 02:41:00,28.0,16.6,29.72,WSW,250,10.0,10.0,62,0.00,,,0.00,Wunderground v.1.15,2013-02-01 07:41:00,
2013-02-01 02:42:00,28.0,16.6,29.72,West,263,3.0,10.0,62,0.00,,,0.00,Wunderground v.1.15,2013-02-01 07:42:00,
2013-02-01 02:43:00,28.0,16.6,29.72,WSW,252,10.0,14.0,62,0.00,,,0.00,Wunderground v.1.15,2013-02-01 07:43:00,
2013-02-01 02:44:00,28.0,16.6,29.72,WSW,242,7.0,14.0,62,0.00,,,0.00,Wunderground v.1.15,2013-02-01 07:44:00,
2013-02-01 02:47:00,27.9,16.6,29.72,SW,224,2.0,5.0,62,0.00,,,0.00,Wunderground v.1.15,2013-02-01 07:47:00,
2013-02-01 02:49:00,27.9,16.6,29.72,WSW,250,11.0,11.0,62,0.00,,,0.00,Wunderground v.1.15,2013-02-01 07:49:00,
2013-02-01 02:52:00,27.8,16.5,29.72,WSW,253,6.0,11.0,62,0.00,,,0.00,Wunderground v.1.15,2013-02-01 07:52:00,
2013-02-01 02:53:00,27.8,16.5,29.72,SW,228,11.0,11.0,62,0.00,,,0.00,Wunderground v.1.15,2013-02-01 07:53:00,
2013-02-01 02:54:00,27.8,16.5,29.72,WSW,238,7.0,12.0,62,0.00,,,0.00,Wunderground v.1.15,2013-02-01 07:54:00,
2013-02-01 02:57:00,27.7,16.4,29.72,WSW,238,7.0,7.0,62,0.00,,,0.00,Wunderground v.1.15,2013-02-01 07:57:00,
2013-02-01 02:58:00,27.7,16.4,29.72,WSW,253,8.0,8.0,62,0.00,,,0.00,Wunderground v.1.15,2013-02-01 07:58:00,
2013-02-01 02:59:00,27.7,16.4,29.72,SW,223,3.0,8.0,62,0.00,,,0.00,Wunderground v.1.15,2013-02-01 07:59:00,
2013-02-01 03:02:00,27.6,16.3,29.72,WSW,248,3.0,9.0,62,0.00,,,0.00,Wunderground v.1.15,2013-02-01 08:02:00,
2013-02-01 03:03:00,27.5,16.2,29.72,WSW,248,2.0,9.0,62,0.00,,,0.00,Wunderground v.1.15,2013-02-01 08:03:00,
2013-02-01 03:04:00,27.5,16.2,29.72,SW,236,2.0,9.0,62,0.00,,,0.00,Wunderground v.1.15,2013-02-01 08:04:00,
2013-02-01 03:05:00,27.5,16.2,29.72,West,263,6.0,9.0,62,0.00,,,0.00,Wunderground v.1.15,2013-02-01 08:05:00,
2013-02-01 03:07:00,27.4,16.1,29.72,WNW,293,2.0,6.0,62,0.00,,,0.00,Wunderground v.1.15,2013-02-01 08:07:00,
2013-02-01 03:08:00,27.4,16.1,29.72,WSW,243,7.0,7.0,62,0.00,,,0.00,Wunderground v.1.15,2013-02-01 08:08:00,
2013-02-01 03:09:00,27.3,16.0,29.72,WSW,239,3.0,8.0,62,0.00,,,0.00,Wunderground v.1.15,2013-02-01 08:09:00,
2013-02-01 03:10:00,27.3,16.0,29.72,WSW,239,2.0,8.0,62,0.00,,,0.00,Wunderground v.1.15,2013-02-01 08:10:00,
2013-02-01 03:12:00,27.2,15.9,29.72,West,272,3.0,14.0,62,0.00,,,0.00,Wunderground v.1.15,2013-02-01 08:12:00,
2013-02-01 03:13:00,27.2,15.9,29.73,WSW,247,8.0,14.0,62,0.00,,,0.00,Wunderground v.1.15,2013-02-01 08:13:00,
2013-02-01 03:15:00,27.1,15.8,29.72,SW,218,3.0,14.0,62,0.00,,,0.00,Wunderground v.1.15,2013-02-01 08:15:00,
2013-02-01 03:17:00,27.0,16.1,29.73,SW,214,5.0,6.0,63,0.00,,,0.00,Wunderground v.1.15,2013-02-01 08:17:00,
2013-02-01 03:18:00,27.0,16.1,29.73,SW,232,7.0,7.0,63,0.00,,,0.00,Wunderground v.1.15,2013-02-01 08:18:00,
2013-02-01 03:20:00,26.9,16.0,29.73,WSW,242,7.0,11.0,63,0.00,,,0.00,Wunderground v.1.15,2013-02-01 08:20:00,
2013-02-01 03:23:00,26.9,16.0,29.73,West,267,8.0,11.0,63,0.00,,,0.00,Wunderground v.1.15,2013-02-01 08:23:00,
2013-02-01 03:24:00,26.8,15.9,29.73,SW,227,5.0,11.0,63,0.00,,,0.00,Wunderground v.1.15,2013-02-01 08:24:00,
2013-02-01 03:25:00,26.9,16.0,29.73,WSW,248,9.0,11.0,63,0.00,,,0.00,Wunderground v.1.15,2013-02-01 08:25:00,
2013-02-01 03:28:00,26.8,15.5,29.73,WSW,240,10.0,14.0,62,0.00,,,0.00,Wunderground v.1.15,2013-02-01 08:28:00,
2013-02-01 03:29:00,26.8,15.5,29.73,WSW,254,3.0,14.0,62,0.00,,,0.00,Wunderground v.1.15,2013-02-01 08:29:00,
2013-02-01 03:30:00,26.8,15.5,29.73,SSW,199,3.0,14.0,62,0.00,,,0.00,Wunderground v.1.15,2013-02-01 08:30:00,
2013-02-01 03:33:00,26.7,15.4,29.73,SW,227,7.0,14.0,62,0.00,,,0.00,Wunderground v.1.15,2013-02-01 08:33:00,
2013-02-01 03:34:00,26.7,15.4,29.73,WSW,248,6.0,14.0,62,0.00,,,0.00,Wunderground v.1.15,2013-02-01 08:34:00,
2013-02-01 03:36:00,26.7,15.4,29.74,SSW,202,6.0,14.0,62,0.00,,,0.00,Wunderground v.1.15,2013-02-01 08:36:00,
2013-02-01 03:38:00,26.7,15.4,29.74,SW,217,1.0,12.0,62,0.00,,,0.00,Wunderground v.1.15,2013-02-01 08:38:00,
2013-02-01 03:39:00,26.7,15.4,29.74,ESE,110,4.0,12.0,62,0.00,,,0.00,Wunderground v.1.15,2013-02-01 08:39:00,
2013-02-01 03:41:00,26.7,15.0,29.74,SSW,209,2.0,14.0,61,0.00,,,0.00,Wunderground v.1.15,2013-02-01 08:41:00,
2013-02-01 03:44:00,26.7,15.0,29.74,West,264,4.0,14.0,61,0.00,,,0.00,Wunderground v.1.15,2013-02-01 08:44:00,
2013-02-01 03:46:00,26.6,14.9,29.74,SW,229,10.0,14.0,61,0.00,,,0.00,Wunderground v.1.15,2013-02-01 08:46:00,
2013-02-01 03:47:00,26.6,14.9,29.74,SSW,209,2.0,5.0,61,0.00,,,0.00,Wunderground v.1.15,2013-02-01 08:47:00,
2013-02-01 03:49:00,26.6,14.9,29.74,West,274,3.0,9.0,61,0.00,,,0.00,Wunderground v.1.15,2013-02-01 08:49:00,
2013-02-01 03:50:00,26.5,14.9,29.74,South,182,12.0,12.0,61,0.00,,,0.00,Wunderground v.1.15,2013-02-01 08:50:00,
2013-02-01 03:51:00,26.5,14.5,29.74,SSW,209,7.0,13.0,60,0.00,,,0.00,Wunderground v.1.15,2013-02-01 08:51:00,
2013-02-01 03:52:00,26.6,14.6,29.74,SW,221,5.0,13.0,60,0.00,,,0.00,Wunderground v.1.15,2013-02-01 08:52:00,
2013-02-01 03:54:00,26.5,14.5,29.74,WSW,246,7.0,13.0,60,0.00,,,0.00,Wunderground v.1.15,2013-02-01 08:54:00,
2013-02-01 03:55:00,26.5,14.5,29.74,WNW,297,4.0,13.0,60,0.00,,,0.00,Wunderground v.1.15,2013-02-01 08:55:00,
2013-02-01 03:56:00,26.5,14.5,29.74,WSW,257,6.0,13.0,60,0.00,,,0.00,Wunderground v.1.15,2013-02-01 08:56:00,
2013-02-01 03:57:00,26.5,14.5,29.74,SSW,213,8.0,11.0,60,0.00,,,0.00,Wunderground v.1.15,2013-02-01 08:57:00,
2013-02-01 03:59:00,26.5,14.5,29.74,WSW,237,5.0,11.0,60,0.00,,,0.00,Wunderground v.1.15,2013-02-01 08:59:00,
2013-02-01 04:00:00,26.5,14.5,29.74,SW,231,4.0,11.0,60,0.00,,,0.00,Wunderground v.1.15,2013-02-01 09:00:00,
2013-02-01 04:02:00,26.4,14.4,29.74,SSW,207,7.0,11.0,60,0.00,,,0.00,Wunderground v.1.15,2013-02-01 09:02:00,
2013-02-01 04:03:00,26.3,14.3,29.75,WSW,244,7.0,11.0,60,0.00,,,0.00,Wunderground v.1.15,2013-02-01 09:03:00,
2013-02-01 04:05:00,26.3,14.3,29.75,WSW,250,6.0,15.0,60,0.00,,,0.00,Wunderground v.1.15,2013-02-01 09:05:00,
2013-02-01 04:07:00,26.3,13.9,29.75,West,259,4.0,17.0,59,0.00,,,0.00,Wunderground v.1.15,2013-02-01 09:07:00,
2013-02-01 04:08:00,26.3,13.9,29.75,SW,221,7.0,17.0,59,0.00,,,0.00,Wunderground v.1.15,2013-02-01 09:08:00,
2013-02-01 04:10:00,26.3,13.9,29.75,WSW,257,9.0,17.0,59,0.00,,,0.00,Wunderground v.1.15,2013-02-01 09:10:00,
2013-02-01 04:11:00,26.3,13.9,29.75,SSW,212,17.0,17.0,59,0.00,,,0.00,Wunderground v.1.15,2013-02-01 09:11:00,
2013-02-01 04:13:00,26.2,13.4,29.75,NW,308,6.0,17.0,58,0.00,,,0.00,Wunderground v.1.15,2013-02-01 09:13:00,
2013-02-01 04:14:00,26.2,13.4,29.75,SSW,202,4.0,17.0,58,0.00,,,0.00,Wunderground v.1.15,2013-02-01 09:14:00,
2013-02-01 04:15:00,26.2,13.4,29.75,SW,229,6.0,17.0,58,0.00,,,0.00,Wunderground v.1.15,2013-02-01 09:15:00,
2013-02-01 04:16:00,26.2,13.4,29.75,SW,216,14.0,17.0,58,0.00,,,0.00,Wunderground v.1.15,2013-02-01 09:16:00,
2013-02-01 04:18:00,26.2,13.4,29.75,SSW,213,2.0,11.0,58,0.00,,,0.00,Wunderground v.1.15,2013-02-01 09:18:00,
2013-02-01 04:19:00,26.2,13.4,29.75,SSW,203,6.0,11.0,58,0.00,,,0.00,Wunderground v.1.15,2013-02-01 09:19:00,
2013-02-01 04:20:00,26.1,13.3,29.75,SSW,196,6.0,12.0,58,0.00,,,0.00,Wunderground v.1.15,2013-02-01 09:20:00,
2013-02-01 04:21:00,26.1,13.3,29.75,South,171,5.0,12.0,58,0.00,,,0.00,Wunderground v.1.15,2013-02-01 09:21:00,
2013-02-01 04:23:00,26.0,12.8,29.75,SSW,212,6.0,15.0,57,0.00,,,0.00,Wunderground v.1.15,2013-02-01 09:23:00,
2013-02-01 04:24:00,26.0,13.2,29.75,West,261,4.0,15.0,58,0.00,,,0.00,Wunderground v.1.15,2013-02-01 09:24:00,
2013-02-01 04:25:00,26.0,13.2,29.75,SSW,213,1.0,15.0,58,0.00,,,0.00,Wunderground v.1.15,2013-02-01 09:25:00,
2013-02-01 04:26:00,25.9,13.1,29.75,SW,222,10.0,15.0,58,0.00,,,0.00,Wunderground v.1.15,2013-02-01 09:26:00,
2013-02-01 04:28:00,25.9,13.1,29.75,WSW,243,6.0,11.0,58,0.00,,,0.00,Wunderground v.1.15,2013-02-01 09:28:00,
2013-02-01 04:29:00,25.9,12.7,29.75,WSW,254,7.0,11.0,57,0.00,,,0.00,Wunderground v.1.15,2013-02-01 09:29:00,
2013-02-01 04:31:00,25.9,12.7,29.75,North,355,10.0,11.0,57,0.00,,,0.00,Wunderground v.1.15,2013-02-01 09:31:00,
2013-02-01 04:33:00,25.9,12.7,29.75,SW,217,6.0,11.0,57,0.00,,,0.00,Wunderground v.1.15,2013-02-01 09:33:00,
2013-02-01 04:36:00,25.9,12.7,29.75,SW,224,4.0,11.0,57,0.00,,,0.00,Wunderground v.1.15,2013-02-01 09:36:00,
2013-02-01 04:37:00,25.9,13.5,29.75,WSW,237,6.0,10.0,59,0.00,,,0.00,Wunderground v.1.15,2013-02-01 09:37:00,
2013-02-01 04:39:00,25.9,13.1,29.76,WSW,241,7.0,18.0,58,0.00,,,0.00,Wunderground v.1.15,2013-02-01 09:39:00,
2013-02-01 04:41:00,25.8,12.2,29.76,SW,221,8.0,18.0,56,0.00,,,0.00,Wunderground v.1.15,2013-02-01 09:41:00,
2013-02-01 04:42:00,25.8,12.2,29.75,WSW,253,5.0,18.0,56,0.00,,,0.00,Wunderground v.1.15,2013-02-01 09:42:00,
2013-02-01 04:44:00,25.8,12.2,29.76,West,269,8.0,18.0,56,0.00,,,0.00,Wunderground v.1.15,2013-02-01 09:44:00,
2013-02-01 04:46:00,25.8,12.2,29.76,WSW,257,4.0,18.0,56,0.00,,,0.00,Wunderground v.1.15,2013-02-01 09:46:00,
2013-02-01 04:47:00,25.7,12.2,29.76,SW,228,2.0,7.0,56,0.00,,,0.00,Wunderground v.1.15,2013-02-01 09:47:00,
2013-02-01 04:49:00,25.6,12.5,29.76,SSW,199,2.0,9.0,57,0.00,,,0.00,Wunderground v.1.15,2013-02-01 09:49:00,
2013-02-01 04:51:00,25.6,12.1,29.76,West,267,5.0,12.0,56,0.00,,,0.00,Wunderground v.1.15,2013-02-01 09:51:00,
2013-02-01 04:52:00,25.6,11.7,29.75,SW,226,5.0,16.0,55,0.00,,,0.00,Wunderground v.1.15,2013-02-01 09:52:00,
2013-02-01 04:53:00,25.6,11.7,29.75,SW,220,2.0,16.0,55,0.00,,,0.00,Wunderground v.1.15,2013-02-01 09:53:00,
2013-02-01 04:54:00,25.6,11.7,29.76,SW,217,5.0,16.0,55,0.00,,,0.00,Wunderground v.1.15,2013-02-01 09:54:00,
2013-02-01 04:56:00,25.6,11.7,29.75,West,261,6.0,16.0,55,0.00,,,0.00,Wunderground v.1.15,2013-02-01 09:56:00,
2013-02-01 04:57:00,25.6,11.7,29.76,West,265,6.0,6.0,55,0.00,,,0.00,Wunderground v.1.15,2013-02-01 09:57:00,
2013-02-01 04:58:00,25.6,11.7,29.76,SW,235,7.0,16.0,55,0.00,,,0.00,Wunderground v.1.15,2013-02-01 09:58:00,
2013-02-01 05:00:00,25.6,11.7,29.75,West,263,5.0,16.0,55,0.00,,,0.00,Wunderground v.1.15,2013-02-01 10:00:00,
2013-02-01 05:01:00,25.5,11.6,29.75,WSW,252,2.0,16.0,55,0.00,,,0.00,Wunderground v.1.15,2013-02-01 10:01:00,
2013-02-01 05:02:00,25.5,11.1,29.75,WSW,253,9.0,18.0,54,0.00,,,0.00,Wunderground v.1.15,2013-02-01 10:02:00,
2013-02-01 05:03:00,25.6,11.7,29.75,West,261,3.0,18.0,55,0.00,,,0.00,Wunderground v.1.15,2013-02-01 10:03:00,
2013-02-01 05:05:00,25.6,11.7,29.76,West,266,7.0,18.0,55,0.00,,,0.00,Wunderground v.1.15,2013-02-01 10:05:00,
2013-02-01 05:06:00,25.6,11.2,29.76,WSW,253,10.0,18.0,54,0.00,,,0.00,Wunderground v.1.15,2013-02-01 10:06:00,
2013-02-01 05:07:00,25.7,11.3,29.76,South,175,7.0,10.0,54,0.00,,,0.00,Wunderground v.1.15,2013-02-01 10:07:00,
2013-02-01 05:08:00,25.7,12.6,29.75,South,189,10.0,12.0,57,0.00,,,0.00,Wunderground v.1.15,2013-02-01 10:08:00,
2013-02-01 05:10:00,25.6,11.7,29.76,WSW,245,12.0,14.0,55,0.00,,,0.00,Wunderground v.1.15,2013-02-01 10:10:00,
2013-02-01 05:11:00,25.6,11.2,29.76,WSW,254,7.0,14.0,54,0.00,,,0.00,Wunderground v.1.15,2013-02-01 10:11:00,
2013-02-01 05:13:00,25.6,11.2,29.76,SSW,203,5.0,16.0,54,0.00,,,0.00,Wunderground v.1.15,2013-02-01 10:13:00,
2013-02-01 05:16:00,25.5,11.6,29.75,SSW,205,6.0,16.0,55,0.00,,,0.00,Wunderground v.1.15,2013-02-01 10:16:00,
2013-02-01 05:17:00,25.4,11.5,29.76,WSW,257,4.0,7.0,55,0.00,,,0.00,Wunderground v.1.15,2013-02-01 10:17:00,
2013-02-01 05:18:00,25.5,10.7,29.76,South,178,6.0,16.0,53,0.00,,,0.00,Wunderground v.1.15,2013-02-01 10:18:00,
2013-02-01 05:21:00,25.4,11.0,29.76,SW,236,8.0,16.0,54,0.00,,,0.00,Wunderground v.1.15,2013-02-01 10:21:00,
2013-02-01 05:22:00,25.4,11.0,29.76,SW,221,5.0,16.0,54,0.00,,,0.00,Wunderground v.1.15,2013-02-01 10:22:00,
2013-02-01 05:23:00,25.4,10.6,29.76,WSW,247,11.0,16.0,53,0.00,,,0.00,Wunderground v.1.15,2013-02-01 10:23:00,
2013-02-01 05:24:00,25.4,11.0,29.76,SW,232,3.0,16.0,54,0.00,,,0.00,Wunderground v.1.15,2013-02-01 10:24:00,
2013-02-01 05:26:00,25.4,11.0,29.76,West,273,7.0,16.0,54,0.00,,,0.00,Wunderground v.1.15,2013-02-01 10:26:00,
2013-02-01 05:27:00,25.4,11.0,29.76,WSW,244,11.0,11.0,54,0.00,,,0.00,Wunderground v.1.15,2013-02-01 10:27:00,
2013-02-01 05:28:00,25.3,11.0,29.76,West,259,6.0,11.0,54,0.00,,,0.00,Wunderground v.1.15,2013-02-01 10:28:00,
2013-02-01 05:29:00,25.3,11.0,29.76,SW,232,4.0,11.0,54,0.00,,,0.00,Wunderground v.1.15,2013-02-01 10:29:00,
2013-02-01 05:31:00,25.3,11.0,29.76,SSW,207,8.0,12.0,54,0.00,,,0.00,Wunderground v.1.15,2013-02-01 10:31:00,
2013-02-01 05:32:00,25.3,11.0,29.76,SSW,205,6.0,12.0,54,0.00,,,0.00,Wunderground v.1.15,2013-02-01 10:32:00,
2013-02-01 05:34:00,25.2,10.4,29.76,SW,233,4.0,12.0,53,0.00,,,0.00,Wunderground v.1.15,2013-02-01 10:34:00,
2013-02-01 05:37:00,25.2,10.4,29.76,WSW,257,11.0,14.0,53,0.00,,,0.00,Wunderground v.1.15,2013-02-01 10:37:00,
2013-02-01 05:39:00,25.2,10.4,29.76,WSW,238,7.0,14.0,53,0.00,,,0.00,Wunderground v.1.15,2013-02-01 10:39:00,
2013-02-01 05:40:00,25.2,10.4,29.76,SW,224,4.0,14.0,53,0.00,,,0.00,Wunderground v.1.15,2013-02-01 10:40:00,
2013-02-01 05:42:00,25.2,10.4,29.75,West,264,3.0,14.0,53,0.00,,,0.00,Wunderground v.1.15,2013-02-01 10:42:00,
2013-02-01 05:44:00,25.1,10.8,29.76,WSW,249,11.0,14.0,54,0.00,,,0.00,Wunderground v.1.15,2013-02-01 10:44:00,
2013-02-01 05:45:00,25.1,10.3,29.76,WSW,238,5.0,14.0,53,0.00,,,0.00,Wunderground v.1.15,2013-02-01 10:45:00,
2013-02-01 05:47:00,25.1,10.8,29.76,SE,144,2.0,8.0,54,0.00,,,0.00,Wunderground v.1.15,2013-02-01 10:47:00,
2013-02-01 05:50:00,25.1,10.3,29.77,WSW,239,10.0,15.0,53,0.00,,,0.00,Wunderground v.1.15,2013-02-01 10:50:00,
2013-02-01 05:51:00,25.1,10.3,29.77,SSW,205,7.0,15.0,53,0.00,,,0.00,Wunderground v.1.15,2013-02-01 10:51:00,
2013-02-01 05:52:00,25.1,10.3,29.77,WSW,255,5.0,15.0,53,0.00,,,0.00,Wunderground v.1.15,2013-02-01 10:52:00,
2013-02-01 05:53:00,25.1,10.8,29.77,West,261,2.0,15.0,54,0.00,,,0.00,Wunderground v.1.15,2013-02-01 10:53:00,
2013-02-01 05:55:00,25.0,10.7,29.77,SW,229,8.0,15.0,54,0.00,,,0.00,Wunderground v.1.15,2013-02-01 10:55:00,
2013-02-01 05:57:00,25.0,10.7,29.77,WSW,242,6.0,6.0,54,0.00,,,0.00,Wunderground v.1.15,2013-02-01 10:57:00,
2013-02-01 05:58:00,25.0,10.7,29.77,WSW,244,4.0,7.0,54,0.00,,,0.00,Wunderground v.1.15,2013-02-01 10:58:00,
2013-02-01 06:00:00,25.0,10.3,29.77,SE,131,2.0,14.0,53,0.00,,,0.00,Wunderground v.1.15,2013-02-01 11:00:00,
2013-02-01 06:02:00,25.0,10.7,29.77,West,271,4.0,14.0,54,0.00,,,0.00,Wunderground v.1.15,2013-02-01 11:02:00,
2013-02-01 06:03:00,25.0,10.7,29.77,WNW,289,5.0,14.0,54,0.00,,,0.00,Wunderground v.1.15,2013-02-01 11:03:00,
2013-02-01 06:07:00,25.0,10.3,29.77,WSW,245,4.0,6.0,53,0.00,,,0.00,Wunderground v.1.15,2013-02-01 11:07:00,
2013-02-01 06:08:00,25.0,10.7,29.77,SSW,200,3.0,6.0,54,0.00,,,0.00,Wunderground v.1.15,2013-02-01 11:08:00,
2013-02-01 06:12:00,24.8,10.5,29.78,SW,228,4.0,10.0,54,0.00,,,0.00,Wunderground v.1.15,2013-02-01 11:12:00,
2013-02-01 06:13:00,24.8,10.5,29.78,SW,221,1.0,10.0,54,0.00,,,0.00,Wunderground v.1.15,2013-02-01 11:13:00,
2013-02-01 06:14:00,24.8,10.5,29.78,SW,221,4.0,10.0,54,0.00,,,0.00,Wunderground v.1.15,2013-02-01 11:14:00,
2013-02-01 06:17:00,24.8,10.5,29.78,WSW,254,13.0,13.0,54,0.00,,,0.00,Wunderground v.1.15,2013-02-01 11:17:00,
2013-02-01 06:18:00,24.9,10.6,29.78,SW,219,9.0,13.0,54,0.00,,,0.00,Wunderground v.1.15,2013-02-01 11:18:00,
2013-02-01 06:19:00,24.9,10.6,29.78,SW,227,10.0,13.0,54,0.00,,,0.00,Wunderground v.1.15,2013-02-01 11:19:00,
2013-02-01 06:23:00,24.8,10.5,29.78,West,266,6.0,13.0,54,0.00,,,0.00,Wunderground v.1.15,2013-02-01 11:23:00,
2013-02-01 06:24:00,24.8,10.5,29.78,West,262,2.0,13.0,54,0.00,,,0.00,Wunderground v.1.15,2013-02-01 11:24:00,
2013-02-01 06:28:00,24.7,10.4,29.78,WNW,294,3.0,11.0,54,0.00,,,0.00,Wunderground v.1.15,2013-02-01 11:28:00,
2013-02-01 06:29:00,24.7,12.0,29.79,South,171,7.0,11.0,58,0.00,,,0.00,Wunderground v.1.15,2013-02-01 11:29:00,
2013-02-01 06:33:00,24.8,10.5,29.79,SW,234,2.0,16.0,54,0.00,,,0.00,Wunderground v.1.15,2013-02-01 11:33:00,
2013-02-01 06:34:00,24.7,10.4,29.79,SW,219,4.0,16.0,54,0.00,,,0.00,Wunderground v.1.15,2013-02-01 11:34:00,
2013-02-01 06:38:00,24.9,11.4,29.79,WSW,246,6.0,8.0,56,0.00,,,0.00,Wunderground v.1.15,2013-02-01 11:38:00,
2013-02-01 06:39:00,24.9,11.0,29.79,WSW,249,3.0,9.0,55,0.00,,,0.00,Wunderground v.1.15,2013-02-01 11:39:00,
2013-02-01 06:44:00,24.8,10.9,29.80,South,176,2.0,13.0,55,0.00,,,0.00,Wunderground v.1.15,2013-02-01 11:44:00,
2013-02-01 06:49:00,24.7,10.8,29.80,SW,219,3.0,10.0,55,0.00,,,0.00,Wunderground v.1.15,2013-02-01 11:49:00,
2013-02-01 06:50:00,24.7,10.8,29.80,SW,229,5.0,10.0,55,0.00,,,0.00,Wunderground v.1.15,2013-02-01 11:50:00,
2013-02-01 06:55:00,24.7,10.4,29.80,WSW,258,6.0,14.0,54,0.00,,,0.00,Wunderground v.1.15,2013-02-01 11:55:00,
2013-02-01 07:00:00,24.7,10.4,29.80,SW,227,4.0,12.0,54,0.00,,,0.00,Wunderground v.1.15,2013-02-01 12:00:00,
2013-02-01 07:01:00,24.7,10.4,29.80,SW,235,2.0,12.0,54,0.00,,,0.00,Wunderground v.1.15,2013-02-01 12:01:00,
2013-02-01 07:05:00,24.7,10.4,29.81,SW,215,5.0,13.0,54,0.00,,,0.00,Wunderground v.1.15,2013-02-01 12:05:00,
2013-02-01 07:06:00,24.7,10.4,29.81,West,259,8.0,13.0,54,0.00,,,0.00,Wunderground v.1.15,2013-02-01 12:06:00,
2013-02-01 07:10:00,24.8,10.1,29.81,SW,228,5.0,14.0,53,0.00,,,0.00,Wunderground v.1.15,2013-02-01 12:10:00,
2013-02-01 07:11:00,24.8,10.1,29.81,SW,214,4.0,14.0,53,0.00,,,0.00,Wunderground v.1.15,2013-02-01 12:11:00,
2013-02-01 07:15:00,24.8,10.5,29.82,SW,227,5.0,14.0,54,0.00,,,0.00,Wunderground v.1.15,2013-02-01 12:15:00,
2013-02-01 07:16:00,24.8,10.5,29.82,SW,229,4.0,14.0,54,0.00,,,0.00,Wunderground v.1.15,2013-02-01 12:16:00,
2013-02-01 07:18:00,24.8,10.5,29.82,WSW,247,11.0,14.0,54,0.00,,,0.00,Wunderground v.1.15,2013-02-01 12:18:00,
2013-02-01 07:20:00,24.8,10.5,29.82,SW,217,9.0,14.0,54,0.00,,,0.00,Wunderground v.1.15,2013-02-01 12:20:00,
2013-02-01 07:21:00,24.9,10.6,29.82,West,274,7.0,14.0,54,0.00,,,0.00,Wunderground v.1.15,2013-02-01 12:21:00,
2013-02-01 07:23:00,24.9,10.6,29.82,WSW,257,4.0,14.0,54,0.00,,,0.00,Wunderground v.1.15,2013-02-01 12:23:00,
2013-02-01 07:26:00,25.1,10.8,29.83,WSW,256,7.0,14.0,54,0.00,,,0.00,Wunderground v.1.15,2013-02-01 12:26:00,
2013-02-01 07:27:00,25.0,10.7,29.83,SSE,161,7.0,9.0,54,0.00,,,0.00,Wunderground v.1.15,2013-02-01 12:27:00,
2013-02-01 07:28:00,25.1,10.8,29.83,WSW,244,9.0,9.0,54,0.00,,,0.00,Wunderground v.1.15,2013-02-01 12:28:00,
2013-02-01 07:32:00,25.2,10.9,29.83,WSW,252,4.0,9.0,54,0.00,,,0.00,Wunderground v.1.15,2013-02-01 12:32:00,
2013-02-01 07:33:00,25.2,10.9,29.83,WSW,257,5.0,9.0,54,0.00,,,0.00,Wunderground v.1.15,2013-02-01 12:33:00,
2013-02-01 07:37:00,25.3,11.4,29.83,WSW,238,4.0,7.0,55,0.00,,,0.00,Wunderground v.1.15,2013-02-01 12:37:00,
2013-02-01 07:38:00,25.3,11.0,29.83,SW,234,5.0,7.0,54,0.00,,,0.00,Wunderground v.1.15,2013-02-01 12:38:00,
2013-02-01 07:42:00,25.4,11.0,29.84,SW,217,4.0,13.0,54,0.00,,,0.00,Wunderground v.1.15,2013-02-01 12:42:00,
2013-02-01 07:43:00,25.5,11.1,29.84,South,181,9.0,13.0,54,0.00,,,0.00,Wunderground v.1.15,2013-02-01 12:43:00,
2013-02-01 07:44:00,25.5,11.1,29.83,West,259,9.0,13.0,54,0.00,,,0.00,Wunderground v.1.15,2013-02-01 12:44:00,
2013-02-01 07:47:00,25.7,13.3,29.84,WSW,249,6.0,7.0,59,0.00,,,0.00,Wunderground v.1.15,2013-02-01 12:47:00,
2013-02-01 07:48:00,25.7,13.3,29.84,WSW,251,3.0,7.0,59,0.00,,,0.00,Wunderground v.1.15,2013-02-01 12:48:00,
2013-02-01 07:49:00,25.7,11.7,29.84,SW,215,7.0,13.0,55,0.00,,,0.00,Wunderground v.1.15,2013-02-01 12:49:00,
2013-02-01 07:52:00,25.8,12.2,29.84,West,260,8.0,14.0,56,0.00,,,0.00,Wunderground v.1.15,2013-02-01 12:52:00,
2013-02-01 07:53:00,25.7,12.2,29.84,WSW,250,8.0,14.0,56,0.00,,,0.00,Wunderground v.1.15,2013-02-01 12:53:00,
2013-02-01 07:54:00,25.7,11.3,29.84,SW,221,5.0,14.0,54,0.00,,,0.00,Wunderground v.1.15,2013-02-01 12:54:00,
2013-02-01 07:55:00,25.7,11.3,29.84,WSW,252,7.0,14.0,54,0.00,,,0.00,Wunderground v.1.15,2013-02-01 12:55:00,
2013-02-01 07:57:00,25.6,12.5,29.84,SSE,157,11.0,23.0,57,0.00,,,0.00,Wunderground v.1.15,2013-02-01 12:57:00,
2013-02-01 07:58:00,25.6,12.5,29.85,WNW,300,14.0,23.0,57,0.00,,,0.00,Wunderground v.1.15,2013-02-01 12:58:00,
2013-02-01 07:59:00,25.5,12.4,29.85,WSW,242,13.0,23.0,57,0.00,,,0.00,Wunderground v.1.15,2013-02-01 12:59:00,
2013-02-01 08:00:00,25.4,12.3,29.84,West,271,5.0,23.0,57,0.00,,,0.00,Wunderground v.1.15,2013-02-01 13:00:00,
2013-02-01 08:03:00,25.3,12.6,29.85,WNW,296,8.0,23.0,58,0.00,,,0.00,Wunderground v.1.15,2013-02-01 13:03:00,
2013-02-01 08:04:00,25.4,12.7,29.85,WSW,250,12.0,23.0,58,0.00,,,0.00,Wunderground v.1.15,2013-02-01 13:04:00,
2013-02-01 08:05:00,25.3,12.6,29.85,WSW,238,4.0,23.0,58,0.00,,,0.00,Wunderground v.1.15,2013-02-01 13:05:00,
2013-02-01 08:09:00,25.4,13.1,29.86,SSW,205,3.0,12.0,59,0.00,,,0.00,Wunderground v.1.15,2013-02-01 13:09:00,
2013-02-01 08:10:00,25.4,13.1,29.86,SW,236,8.0,12.0,59,0.00,,,0.00,Wunderground v.1.15,2013-02-01 13:10:00,
2013-02-01 08:14:00,25.3,13.3,29.86,West,265,4.0,16.0,60,0.00,,,0.00,Wunderground v.1.15,2013-02-01 13:14:00,
2013-02-01 08:15:00,25.2,13.2,29.86,WSW,247,5.0,16.0,60,0.00,,,0.00,Wunderground v.1.15,2013-02-01 13:15:00,
2013-02-01 08:20:00,25.0,13.8,29.86,SSW,193,4.0,12.0,62,0.00,,,0.00,Wunderground v.1.15,2013-02-01 13:20:00,
2013-02-01 08:21:00,25.0,13.8,29.86,SW,234,8.0,12.0,62,0.00,,,0.00,Wunderground v.1.15,2013-02-01 13:21:00,
2013-02-01 08:25:00,24.9,14.1,29.86,South,190,4.0,17.0,63,0.00,,,0.00,Wunderground v.1.15,2013-02-01 13:25:00,
2013-02-01 08:26:00,24.8,14.3,29.87,SW,223,5.0,17.0,64,0.00,,,0.00,Wunderground v.1.15,2013-02-01 13:26:00,
2013-02-01 08:30:00,24.7,15.3,29.87,West,274,6.0,11.0,67,0.00,,,0.00,Wunderground v.1.15,2013-02-01 13:30:00,
2013-02-01 08:32:00,24.6,15.5,29.88,West,270,6.0,14.0,68,0.00,,,0.00,Wunderground v.1.15,2013-02-01 13:32:00,
2013-02-01 08:35:00,24.4,16.0,29.88,West,279,4.0,14.0,70,0.00,,,0.00,Wunderground v.1.15,2013-02-01 13:35:00,
2013-02-01 08:37:00,24.4,16.3,29.88,WSW,244,4.0,6.0,71,0.00,,,0.00,Wunderground v.1.15,2013-02-01 13:37:00,
2013-02-01 08:40:00,24.4,16.7,29.88,WSW,253,8.0,10.0,72,0.00,,,0.00,Wunderground v.1.15,2013-02-01 13:40:00,
2013-02-01 08:41:00,24.5,16.8,29.88,WSW,238,1.0,10.0,72,0.00,,,0.00,Wunderground v.1.15,2013-02-01 13:41:00,
2013-02-01 08:42:00,24.7,17.9,29.88,WSW,254,11.0,13.0,75,0.00,,,0.00,Wunderground v.1.15,2013-02-01 13:42:00,
2013-02-01 08:45:00,24.6,16.5,29.88,WSW,250,9.0,13.0,71,0.00,,,0.00,Wunderground v.1.15,2013-02-01 13:45:00,
2013-02-01 08:46:00,24.6,16.5,29.88,South,172,4.0,13.0,71,0.00,,,0.00,Wunderground v.1.15,2013-02-01 13:46:00,
2013-02-01 08:47:00,24.8,18.0,29.88,WSW,248,7.0,7.0,75,0.00,,,0.00,Wunderground v.1.15,2013-02-01 13:47:00,
2013-02-01 08:50:00,25.0,17.2,29.88,West,279,3.0,11.0,72,0.00,,,0.00,Wunderground v.1.15,2013-02-01 13:50:00,
2013-02-01 08:51:00,25.0,17.2,29.88,West,279,2.0,11.0,72,0.00,,,0.00,Wunderground v.1.15,2013-02-01 13:51:00,
2013-02-01 08:52:00,25.1,17.3,29.88,WSW,258,4.0,11.0,72,0.00,,,0.00,Wunderground v.1.15,2013-02-01 13:52:00,
2013-02-01 08:56:00,25.2,17.1,29.88,West,273,3.0,11.0,71,0.00,,,0.00,Wunderground v.1.15,2013-02-01 13:56:00,
2013-02-01 08:58:00,25.0,16.3,29.88,WSW,252,4.0,8.0,69,0.00,,,0.00,Wunderground v.1.15,2013-02-01 13:58:00,
2013-02-01 09:01:00,24.9,15.8,29.88,NW,308,2.0,16.0,68,0.00,,,0.00,Wunderground v.1.15,2013-02-01 14:01:00,
2013-02-01 09:03:00,24.9,15.5,29.89,WSW,244,7.0,16.0,67,0.00,,,0.00,Wunderground v.1.15,2013-02-01 14:03:00,
2013-02-01 09:06:00,25.0,15.9,29.89,WSW,246,11.0,16.0,68,0.00,,,0.00,Wunderground v.1.15,2013-02-01 14:06:00,
2013-02-01 09:08:00,24.9,15.8,29.89,WNW,290,7.0,16.0,68,0.00,,,0.00,Wunderground v.1.15,2013-02-01 14:08:00,
2013-02-01 09:09:00,24.9,15.5,29.89,SSW,211,2.0,16.0,67,0.00,,,0.00,Wunderground v.1.15,2013-02-01 14:09:00,
2013-02-01 09:11:00,24.9,15.8,29.89,SW,225,10.0,16.0,68,0.00,,,0.00,Wunderground v.1.15,2013-02-01 14:11:00,
2013-02-01 09:13:00,24.9,16.2,29.89,West,263,3.0,17.0,69,0.00,,,0.00,Wunderground v.1.15,2013-02-01 14:13:00,
2013-02-01 09:14:00,24.9,16.2,29.89,South,180,4.0,17.0,69,0.00,,,0.00,Wunderground v.1.15,2013-02-01 14:14:00,
2013-02-01 09:16:00,25.0,15.9,29.89,SW,232,8.0,17.0,68,0.00,,,0.00,Wunderground v.1.15,2013-02-01 14:16:00,
2013-02-01 09:17:00,24.9,15.8,29.89,WSW,254,3.0,7.0,68,0.00,,,0.00,Wunderground v.1.15,2013-02-01 14:17:00,
2013-02-01 09:19:00,24.9,15.8,29.89,West,269,9.0,12.0,68,0.00,,,0.00,Wunderground v.1.15,2013-02-01 14:19:00,
2013-02-01 09:20:00,24.9,15.8,29.89,SW,218,9.0,12.0,68,0.00,,,0.00,Wunderground v.1.15,2013-02-01 14:20:00,
2013-02-01 09:21:00,24.9,16.2,29.89,West,278,9.0,12.0,69,0.00,,,0.00,Wunderground v.1.15,2013-02-01 14:21:00,
2013-02-01 09:23:00,24.9,15.8,29.89,West,274,7.0,14.0,68,0.00,,,0.00,Wunderground v.1.15,2013-02-01 14:23:00,
2013-02-01 09:24:00,24.9,15.5,29.89,NW,315,6.0,14.0,67,0.00,,,0.00,Wunderground v.1.15,2013-02-01 14:24:00,
2013-02-01 09:26:00,24.8,15.4,29.89,NNE,26,4.0,16.0,67,0.00,,,0.00,Wunderground v.1.15,2013-02-01 14:26:00,
2013-02-01 09:28:00,24.7,16.0,29.89,SSE,167,11.0,11.0,69,0.00,,,0.00,Wunderground v.1.15,2013-02-01 14:28:00,
2013-02-01 09:31:00,24.7,15.3,29.89,West,271,4.0,14.0,67,0.00,,,0.00,Wunderground v.1.15,2013-02-01 14:31:00,
2013-02-01 09:34:00,24.7,15.6,29.89,West,279,4.0,14.0,68,0.00,,,0.00,Wunderground v.1.15,2013-02-01 14:34:00,
2013-02-01 09:36:00,24.8,15.7,29.89,SSW,213,3.0,14.0,68,0.00,,,0.00,Wunderground v.1.15,2013-02-01 14:36:00,
2013-02-01 09:37:00,24.8,15.7,29.89,WSW,240,2.0,5.0,68,0.00,,,0.00,Wunderground v.1.15,2013-02-01 14:37:00,
2013-02-01 09:39:00,24.9,15.5,29.89,WSW,244,7.0,12.0,67,0.00,,,0.00,Wunderground v.1.15,2013-02-01 14:39:00,
2013-02-01 09:41:00,25.0,15.6,29.88,WSW,254,5.0,12.0,67,0.00,,,0.00,Wunderground v.1.15,2013-02-01 14:41:00,
2013-02-01 09:42:00,25.0,15.6,29.88,West,264,6.0,12.0,67,0.00,,,0.00,Wunderground v.1.15,2013-02-01 14:42:00,
2013-02-01 09:45:00,25.2,15.4,29.88,West,266,4.0,18.0,66,0.00,,,0.00,Wunderground v.1.15,2013-02-01 14:45:00,
2013-02-01 09:46:00,25.3,15.2,29.88,NNW,337,6.0,18.0,65,0.00,,,0.00,Wunderground v.1.15,2013-02-01 14:46:00,
2013-02-01 09:47:00,25.3,15.2,29.88,NNW,336,7.0,9.0,65,0.00,,,0.00,Wunderground v.1.15,2013-02-01 14:47:00,
2013-02-01 09:51:00,25.7,15.6,29.88,WSW,257,9.0,12.0,65,0.00,,,0.00,Wunderground v.1.15,2013-02-01 14:51:00,
2013-02-01 09:52:00,25.7,15.2,29.88,WSW,244,9.0,15.0,64,0.00,,,0.00,Wunderground v.1.15,2013-02-01 14:52:00,
2013-02-01 09:56:00,26.1,15.2,29.87,NNW,344,7.0,15.0,63,0.00,,,0.00,Wunderground v.1.15,2013-02-01 14:56:00,
2013-02-01 09:57:00,26.1,14.8,29.86,West,260,2.0,6.0,62,0.00,,,0.00,Wunderground v.1.15,2013-02-01 14:57:00,
2013-02-01 10:02:00,26.5,14.1,29.86,WSW,254,5.0,12.0,59,0.00,,,0.00,Wunderground v.1.15,2013-02-01 15:02:00,
2013-02-01 10:07:00,26.8,13.2,29.87,NW,308,6.0,13.0,56,0.00,,,0.00,Wunderground v.1.15,2013-02-01 15:07:00,
2013-02-01 10:12:00,26.9,12.5,29.87,WNW,298,7.0,17.0,54,0.00,,,0.00,Wunderground v.1.15,2013-02-01 15:12:00,
2013-02-01 10:13:00,26.9,12.5,29.87,WSW,253,9.0,17.0,54,0.00,,,0.00,Wunderground v.1.15,2013-02-01 15:13:00,
2013-02-01 10:17:00,27.4,12.5,29.88,WNW,293,8.0,11.0,53,0.00,,,0.00,Wunderground v.1.15,2013-02-01 15:17:00,
2013-02-01 10:18:00,27.5,12.6,29.88,West,259,9.0,11.0,53,0.00,,,0.00,Wunderground v.1.15,2013-02-01 15:18:00,
2013-02-01 10:22:00,27.1,10.9,29.88,WNW,292,9.0,18.0,50,0.00,,,0.00,Wunderground v.1.15,2013-02-01 15:22:00,
2013-02-01 10:23:00,27.0,11.3,29.88,WNW,286,6.0,18.0,51,0.00,,,0.00,Wunderground v.1.15,2013-02-01 15:23:00,
2013-02-01 10:27:00,27.2,11.9,29.88,West,273,3.0,9.0,52,0.00,,,0.00,Wunderground v.1.15,2013-02-01 15:27:00,
2013-02-01 10:28:00,27.2,11.9,29.88,NW,323,7.0,9.0,52,0.00,,,0.00,Wunderground v.1.15,2013-02-01 15:28:00,
2013-02-01 10:29:00,27.3,13.7,29.88,NW,306,5.0,9.0,56,0.00,,,0.00,Wunderground v.1.15,2013-02-01 15:29:00,
2013-02-01 10:33:00,27.5,13.4,29.88,West,272,4.0,10.0,55,0.00,,,0.00,Wunderground v.1.15,2013-02-01 15:33:00,
2013-02-01 10:34:00,27.6,13.1,29.88,West,266,4.0,10.0,54,0.00,,,0.00,Wunderground v.1.15,2013-02-01 15:34:00,
2013-02-01 10:35:00,27.7,14.4,29.88,NW,307,7.0,10.0,57,0.00,,,0.00,Wunderground v.1.15,2013-02-01 15:35:00,
2013-02-01 10:38:00,27.6,13.1,29.88,SSW,203,5.0,14.0,54,0.00,,,0.00,Wunderground v.1.15,2013-02-01 15:38:00,
2013-02-01 10:39:00,27.5,13.0,29.88,WNW,296,3.0,15.0,54,0.00,,,0.00,Wunderground v.1.15,2013-02-01 15:39:00,
2013-02-01 10:40:00,27.5,12.2,29.88,WSW,244,6.0,15.0,52,0.00,,,0.00,Wunderground v.1.15,2013-02-01 15:40:00,
2013-02-01 10:43:00,27.5,12.6,29.89,NW,304,4.0,15.0,53,0.00,,,0.00,Wunderground v.1.15,2013-02-01 15:43:00,
2013-02-01 10:44:00,27.6,13.5,29.89,West,269,5.0,15.0,55,0.00,,,0.00,Wunderground v.1.15,2013-02-01 15:44:00,
2013-02-01 10:45:00,27.6,12.2,29.89,West,273,3.0,15.0,52,0.00,,,0.00,Wunderground v.1.15,2013-02-01 15:45:00,
2013-02-01 10:48:00,27.6,11.8,29.88,West,273,6.0,10.0,51,0.00,,,0.00,Wunderground v.1.15,2013-02-01 15:48:00,
2013-02-01 10:49:00,27.8,13.7,29.88,West,277,6.0,10.0,55,0.00,,,0.00,Wunderground v.1.15,2013-02-01 15:49:00,
2013-02-01 10:50:00,27.8,13.3,29.88,SW,232,4.0,11.0,54,0.00,,,0.00,Wunderground v.1.15,2013-02-01 15:50:00,
2013-02-01 10:53:00,27.6,10.9,29.89,SSW,213,11.0,19.0,49,0.00,,,0.00,Wunderground v.1.15,2013-02-01 15:53:00,
2013-02-01 10:54:00,27.4,10.3,29.88,SSW,193,4.0,19.0,48,0.00,,,0.00,Wunderground v.1.15,2013-02-01 15:54:00,
2013-02-01 10:56:00,27.4,10.3,29.88,WSW,253,7.0,19.0,48,0.00,,,0.00,Wunderground v.1.15,2013-02-01 15:56:00,
2013-02-01 10:58:00,27.4,9.8,29.88,NNW,329,8.0,13.0,47,0.00,,,0.00,Wunderground v.1.15,2013-02-01 15:58:00,
2013-02-01 10:59:00,27.4,9.8,29.88,WSW,248,6.0,13.0,47,0.00,,,0.00,Wunderground v.1.15,2013-02-01 15:59:00,
2013-02-01 11:00:00,27.4,9.8,29.88,WSW,244,9.0,13.0,47,0.00,,,0.00,Wunderground v.1.15,2013-02-01 16:00:00,
2013-02-01 11:01:00,27.4,9.3,29.88,WSW,252,5.0,13.0,46,0.00,,,0.00,Wunderground v.1.15,2013-02-01 16:01:00,
2013-02-01 11:04:00,27.5,8.4,29.88,WNW,290,9.0,15.0,44,0.00,,,0.00,Wunderground v.1.15,2013-02-01 16:04:00,
2013-02-01 11:05:00,27.6,7.5,29.87,WSW,247,9.0,24.0,42,0.00,,,0.00,Wunderground v.1.15,2013-02-01 16:05:00,
2013-02-01 11:07:00,27.9,7.7,29.88,East,84,9.0,9.0,42,0.00,,,0.00,Wunderground v.1.15,2013-02-01 16:07:00,
2013-02-01 11:09:00,28.1,6.3,29.88,SSW,209,5.0,25.0,39,0.00,,,0.00,Wunderground v.1.15,2013-02-01 16:09:00,
2013-02-01 11:10:00,28.1,6.3,29.88,NW,319,10.0,25.0,39,0.00,,,0.00,Wunderground v.1.15,2013-02-01 16:10:00,
2013-02-01 11:11:00,28.1,6.3,29.88,WNW,302,3.0,25.0,39,0.00,,,0.00,Wunderground v.1.15,2013-02-01 16:11:00,
2013-02-01 11:12:00,28.2,6.4,29.88,South,181,7.0,25.0,39,0.00,,,0.00,Wunderground v.1.15,2013-02-01 16:12:00,
2013-02-01 11:15:00,28.1,5.7,29.88,West,261,6.0,25.0,38,0.00,,,0.00,Wunderground v.1.15,2013-02-01 16:15:00,
2013-02-01 11:16:00,28.2,6.4,29.88,WNW,284,17.0,25.0,39,0.00,,,0.00,Wunderground v.1.15,2013-02-01 16:16:00,
2013-02-01 11:17:00,28.3,5.9,29.88,West,263,9.0,11.0,38,0.00,,,0.00,Wunderground v.1.15,2013-02-01 16:17:00,
2013-02-01 11:20:00,28.3,5.9,29.88,WSW,252,3.0,14.0,38,0.00,,,0.00,Wunderground v.1.15,2013-02-01 16:20:00,
2013-02-01 11:21:00,28.4,6.6,29.88,WSW,254,2.0,14.0,39,0.00,,,0.00,Wunderground v.1.15,2013-02-01 16:21:00,
2013-02-01 11:23:00,28.5,6.1,29.88,NNE,27,3.0,18.0,38,0.00,,,0.00,Wunderground v.1.15,2013-02-01 16:23:00,
2013-02-01 11:25:00,28.4,6.0,29.88,WSW,244,4.0,18.0,38,0.00,,,0.00,Wunderground v.1.15,2013-02-01 16:25:00,
2013-02-01 11:26:00,28.5,6.6,29.88,West,260,8.0,18.0,39,0.00,,,0.00,Wunderground v.1.15,2013-02-01 16:26:00,
2013-02-01 11:28:00,28.6,6.7,29.88,West,261,7.0,13.0,39,0.00,,,0.00,Wunderground v.1.15,2013-02-01 16:28:00,
2013-02-01 11:30:00,28.6,6.2,29.88,West,265,6.0,14.0,38,0.00,,,0.00,Wunderground v.1.15,2013-02-01 16:30:00,
2013-02-01 11:31:00,28.7,7.4,29.88,WNW,295,5.0,14.0,40,0.00,,,0.00,Wunderground v.1.15,2013-02-01 16:31:00,
2013-02-01 11:34:00,28.9,7.0,29.88,West,277,6.0,14.0,39,0.00,,,0.00,Wunderground v.1.15,2013-02-01 16:34:00,
2013-02-01 11:35:00,28.9,7.0,29.88,NW,311,2.0,14.0,39,0.00,,,0.00,Wunderground v.1.15,2013-02-01 16:35:00,
2013-02-01 11:36:00,28.9,7.6,29.88,WNW,285,5.0,14.0,40,0.00,,,0.00,Wunderground v.1.15,2013-02-01 16:36:00,
2013-02-01 11:37:00,29.0,7.7,29.87,SSW,206,7.0,9.0,40,0.00,,,0.00,Wunderground v.1.15,2013-02-01 16:37:00,
2013-02-01 11:39:00,29.0,7.1,29.88,North,355,6.0,9.0,39,0.00,,,0.00,Wunderground v.1.15,2013-02-01 16:39:00,
2013-02-01 11:41:00,29.0,8.2,29.88,West,274,5.0,12.0,41,0.00,,,0.00,Wunderground v.1.15,2013-02-01 16:41:00,
2013-02-01 11:43:00,29.0,7.7,29.87,WNW,284,4.0,14.0,40,0.00,,,0.00,Wunderground v.1.15,2013-02-01 16:43:00,
2013-02-01 11:44:00,28.9,7.6,29.87,West,276,15.0,24.0,40,0.00,,,0.00,Wunderground v.1.15,2013-02-01 16:44:00,
2013-02-01 11:46:00,28.6,6.7,29.87,West,266,15.0,24.0,39,0.00,,,0.00,Wunderground v.1.15,2013-02-01 16:46:00,
2013-02-01 11:48:00,28.5,7.2,29.87,WNW,300,5.0,17.0,40,0.00,,,0.00,Wunderground v.1.15,2013-02-01 16:48:00,
2013-02-01 11:49:00,28.3,7.0,29.87,SW,234,12.0,17.0,40,0.00,,,0.00,Wunderground v.1.15,2013-02-01 16:49:00,
2013-02-01 11:51:00,28.1,6.3,29.87,NW,304,10.0,23.0,39,0.00,,,0.00,Wunderground v.1.15,2013-02-01 16:51:00,
2013-02-01 11:52:00,28.0,6.2,29.87,WNW,282,8.0,23.0,39,0.00,,,0.00,Wunderground v.1.15,2013-02-01 16:52:00,
2013-02-01 11:53:00,28.1,6.3,29.87,West,259,8.0,23.0,39,0.00,,,0.00,Wunderground v.1.15,2013-02-01 16:53:00,
2013-02-01 11:55:00,28.2,6.9,29.87,West,275,5.0,23.0,40,0.00,,,0.00,Wunderground v.1.15,2013-02-01 16:55:00,
2013-02-01 11:56:00,28.3,7.0,29.87,West,259,17.0,23.0,40,0.00,,,0.00,Wunderground v.1.15,2013-02-01 16:56:00,
2013-02-01 11:58:00,28.2,6.4,29.87,West,269,7.0,23.0,39,0.00,,,0.00,Wunderground v.1.15,2013-02-01 16:58:00,
2013-02-01 12:00:00,28.3,7.0,29.87,WNW,292,12.0,23.0,40,0.00,,,0.00,Wunderground v.1.15,2013-02-01 17:00:00,
2013-02-01 12:02:00,28.3,7.0,29.86,West,280,10.0,23.0,40,0.00,,,0.00,Wunderground v.1.15,2013-02-01 17:02:00,
2013-02-01 12:03:00,28.4,6.6,29.86,WSW,248,5.0,23.0,39,0.00,,,0.00,Wunderground v.1.15,2013-02-01 17:03:00,
2013-02-01 12:05:00,28.5,7.2,29.87,WNW,298,5.0,23.0,40,0.00,,,0.00,Wunderground v.1.15,2013-02-01 17:05:00,
2013-02-01 12:07:00,28.8,8.0,29.86,WNW,291,3.0,13.0,41,0.00,,,0.00,Wunderground v.1.15,2013-02-01 17:07:00,
2013-02-01 12:08:00,28.8,7.5,29.86,West,267,10.0,13.0,40,0.00,,,0.00,Wunderground v.1.15,2013-02-01 17:08:00,
2013-02-01 12:09:00,28.7,6.8,29.86,West,272,9.0,15.0,39,0.00,,,0.00,Wunderground v.1.15,2013-02-01 17:09:00,
2013-02-01 12:11:00,28.7,7.9,29.86,West,273,5.0,15.0,41,0.00,,,0.00,Wunderground v.1.15,2013-02-01 17:11:00,
2013-02-01 12:12:00,28.8,8.6,29.86,WNW,290,5.0,15.0,42,0.00,,,0.00,Wunderground v.1.15,2013-02-01 17:12:00,
2013-02-01 12:13:00,29.0,8.2,29.85,NNE,22,5.0,15.0,41,0.00,,,0.00,Wunderground v.1.15,2013-02-01 17:13:00,
2013-02-01 12:15:00,29.0,8.7,29.85,NW,320,8.0,15.0,42,0.00,,,0.00,Wunderground v.1.15,2013-02-01 17:15:00,
2013-02-01 12:16:00,29.1,8.3,29.85,WNW,288,12.0,17.0,41,0.00,,,0.00,Wunderground v.1.15,2013-02-01 17:16:00,
2013-02-01 12:17:00,28.9,7.6,29.85,WNW,299,14.0,16.0,40,0.00,,,0.00,Wunderground v.1.15,2013-02-01 17:17:00,
2013-02-01 12:19:00,28.8,8.0,29.85,West,271,7.0,18.0,41,0.00,,,0.00,Wunderground v.1.15,2013-02-01 17:19:00,
2013-02-01 12:20:00,28.8,8.0,29.85,NW,311,10.0,18.0,41,0.00,,,0.00,Wunderground v.1.15,2013-02-01 17:20:00,
2013-02-01 12:21:00,28.8,8.0,29.84,SW,225,12.0,18.0,41,0.00,,,0.00,Wunderground v.1.15,2013-02-01 17:21:00,
2013-02-01 12:22:00,28.7,7.9,29.85,West,260,9.0,18.0,41,0.00,,,0.00,Wunderground v.1.15,2013-02-01 17:22:00,
2013-02-01 12:25:00,28.8,10.1,29.84,West,276,8.0,18.0,45,0.00,,,0.00,Wunderground v.1.15,2013-02-01 17:25:00,
2013-02-01 12:26:00,28.9,9.2,29.85,NNW,332,8.0,18.0,43,0.00,,,0.00,Wunderground v.1.15,2013-02-01 17:26:00,
2013-02-01 12:27:00,29.0,9.3,29.85,North,355,9.0,15.0,43,0.00,,,0.00,Wunderground v.1.15,2013-02-01 17:27:00,
2013-02-01 12:30:00,29.0,8.2,29.85,North,355,8.0,20.0,41,0.00,,,0.00,Wunderground v.1.15,2013-02-01 17:30:00,
2013-02-01 12:32:00,29.0,8.7,29.85,North,5,11.0,20.0,42,0.00,,,0.00,Wunderground v.1.15,2013-02-01 17:32:00,
2013-02-01 12:33:00,29.0,9.3,29.85,NNW,340,10.0,20.0,43,0.00,,,0.00,Wunderground v.1.15,2013-02-01 17:33:00,
2013-02-01 12:35:00,29.2,8.9,29.84,West,270,9.0,20.0,42,0.00,,,0.00,Wunderground v.1.15,2013-02-01 17:35:00,
2013-02-01 12:37:00,29.1,8.8,29.84,West,265,15.0,21.0,42,0.00,,,0.00,Wunderground v.1.15,2013-02-01 17:37:00,
2013-02-01 12:39:00,28.8,8.0,29.84,West,264,9.0,21.0,41,0.00,,,0.00,Wunderground v.1.15,2013-02-01 17:39:00,
2013-02-01 12:40:00,28.8,8.0,29.84,NNW,329,11.0,21.0,41,0.00,,,0.00,Wunderground v.1.15,2013-02-01 17:40:00,
2013-02-01 12:41:00,28.8,8.0,29.84,NW,309,8.0,21.0,41,0.00,,,0.00,Wunderground v.1.15,2013-02-01 17:41:00,
2013-02-01 12:42:00,28.8,8.0,29.84,NW,321,7.0,21.0,41,0.00,,,0.00,Wunderground v.1.15,2013-02-01 17:42:00,
2013-02-01 12:44:00,28.8,8.0,29.84,West,265,8.0,21.0,41,0.00,,,0.00,Wunderground v.1.15,2013-02-01 17:44:00,
2013-02-01 12:46:00,28.8,8.0,29.84,West,266,7.0,21.0,41,0.00,,,0.00,Wunderground v.1.15,2013-02-01 17:46:00,
2013-02-01 12:47:00,28.8,8.0,29.84,NNW,333,15.0,16.0,41,0.00,,,0.00,Wunderground v.1.15,2013-02-01 17:47:00,
2013-02-01 12:49:00,28.5,7.2,29.84,NNW,331,14.0,18.0,40,0.00,,,0.00,Wunderground v.1.15,2013-02-01 17:49:00,
2013-02-01 12:51:00,28.5,7.2,29.84,NNW,344,4.0,18.0,40,0.00,,,0.00,Wunderground v.1.15,2013-02-01 17:51:00,
2013-02-01 12:52:00,28.6,7.8,29.84,NW,304,7.0,18.0,41,0.00,,,0.00,Wunderground v.1.15,2013-02-01 17:52:00,
2013-02-01 12:54:00,28.7,7.4,29.84,WNW,284,4.0,18.0,40,0.00,,,0.00,Wunderground v.1.15,2013-02-01 17:54:00,
2013-02-01 12:56:00,28.8,7.5,29.84,WSW,243,7.0,18.0,40,0.00,,,0.00,Wunderground v.1.15,2013-02-01 17:56:00,
2013-02-01 12:57:00,28.9,8.1,29.84,West,265,3.0,8.0,41,0.00,,,0.00,Wunderground v.1.15,2013-02-01 17:57:00,
2013-02-01 13:00:00,29.2,7.8,29.84,NNW,343,5.0,14.0,40,0.00,,,0.00,Wunderground v.1.15,2013-02-01 18:00:00,
2013-02-01 13:01:00,29.2,7.8,29.84,NNW,331,9.0,14.0,40,0.00,,,0.00,Wunderground v.1.15,2013-02-01 18:01:00,
2013-02-01 13:02:00,29.2,7.3,29.84,North,5,3.0,14.0,39,0.00,,,0.00,Wunderground v.1.15,2013-02-01 18:02:00,
2013-02-01 13:03:00,29.2,7.8,29.84,West,275,16.0,16.0,40,0.00,,,0.00,Wunderground v.1.15,2013-02-01 18:03:00,
2013-02-01 13:05:00,29.0,7.1,29.84,WNW,303,6.0,19.0,39,0.00,,,0.00,Wunderground v.1.15,2013-02-01 18:05:00,
2013-02-01 13:07:00,29.1,7.7,29.85,WSW,246,5.0,7.0,40,0.00,,,0.00,Wunderground v.1.15,2013-02-01 18:07:00,
2013-02-01 13:09:00,29.2,7.8,29.85,NE,40,4.0,19.0,40,0.00,,,0.00,Wunderground v.1.15,2013-02-01 18:09:00,
2013-02-01 13:10:00,29.3,7.9,29.85,WNW,300,5.0,19.0,40,0.00,,,0.00,Wunderground v.1.15,2013-02-01 18:10:00,
2013-02-01 13:12:00,29.4,8.0,29.85,SW,218,2.0,19.0,40,0.00,,,0.00,Wunderground v.1.15,2013-02-01 18:12:00,
2013-02-01 13:13:00,29.6,8.2,29.85,SW,229,6.0,19.0,40,0.00,,,0.00,Wunderground v.1.15,2013-02-01 18:13:00,
2013-02-01 13:14:00,29.7,7.7,29.85,NNW,332,5.0,19.0,39,0.00,,,0.00,Wunderground v.1.15,2013-02-01 18:14:00,
2013-02-01 13:15:00,29.9,8.5,29.85,SSW,208,3.0,19.0,40,0.00,,,0.00,Wunderground v.1.15,2013-02-01 18:15:00,
2013-02-01 13:17:00,30.1,8.1,29.85,NW,320,5.0,5.0,39,0.00,,,0.00,Wunderground v.1.15,2013-02-01 18:17:00,
2013-02-01 13:18:00,30.2,8.2,29.85,South,189,9.0,14.0,39,0.00,,,0.00,Wunderground v.1.15,2013-02-01 18:18:00,
2013-02-01 13:20:00,30.1,7.5,29.85,NW,313,10.0,14.0,38,0.00,,,0.00,Wunderground v.1.15,2013-02-01 18:20:00,
2013-02-01 13:22:00,30.3,8.3,29.85,WNW,296,7.0,14.0,39,0.00,,,0.00,Wunderground v.1.15,2013-02-01 18:22:00,
2013-02-01 13:23:00,30.4,8.4,29.85,WSW,248,7.0,14.0,39,0.00,,,0.00,Wunderground v.1.15,2013-02-01 18:23:00,
2013-02-01 13:25:00,30.3,8.3,29.85,West,278,7.0,16.0,39,0.00,,,0.00,Wunderground v.1.15,2013-02-01 18:25:00,
2013-02-01 13:27:00,30.0,7.4,29.85,West,263,5.0,7.0,38,0.00,,,0.00,Wunderground v.1.15,2013-02-01 18:27:00,
2013-02-01 13:28:00,29.9,7.9,29.85,WNW,294,5.0,14.0,39,0.00,,,0.00,Wunderground v.1.15,2013-02-01 18:28:00,
2013-02-01 13:30:00,29.7,7.2,29.85,West,275,9.0,17.0,38,0.00,,,0.00,Wunderground v.1.15,2013-02-01 18:30:00,
2013-02-01 13:33:00,29.2,6.1,29.85,NW,306,10.0,17.0,37,0.00,,,0.00,Wunderground v.1.15,2013-02-01 18:33:00,
2013-02-01 13:35:00,28.8,6.3,29.86,WSW,252,6.0,17.0,38,0.00,,,0.00,Wunderground v.1.15,2013-02-01 18:35:00,
2013-02-01 13:38:00,28.7,6.8,29.86,WSW,242,5.0,15.0,39,0.00,,,0.00,Wunderground v.1.15,2013-02-01 18:38:00,
2013-02-01 13:40:00,28.4,6.6,29.85,West,259,8.0,15.0,39,0.00,,,0.00,Wunderground v.1.15,2013-02-01 18:40:00,
2013-02-01 13:41:00,28.4,6.6,29.85,NW,317,3.0,15.0,39,0.00,,,0.00,Wunderground v.1.15,2013-02-01 18:41:00,
2013-02-01 13:43:00,28.4,6.6,29.85,North,355,5.0,15.0,39,0.00,,,0.00,Wunderground v.1.15,2013-02-01 18:43:00,
2013-02-01 13:44:00,28.4,6.6,29.86,NNW,329,3.0,15.0,39,0.00,,,0.00,Wunderground v.1.15,2013-02-01 18:44:00,
2013-02-01 13:46:00,28.6,6.2,29.86,NNW,345,2.0,15.0,38,0.00,,,0.00,Wunderground v.1.15,2013-02-01 18:46:00,
2013-02-01 13:48:00,28.8,6.3,29.86,WSW,258,8.0,13.0,38,0.00,,,0.00,Wunderground v.1.15,2013-02-01 18:48:00,
2013-02-01 13:49:00,28.7,6.3,29.86,West,277,4.0,13.0,38,0.00,,,0.00,Wunderground v.1.15,2013-02-01 18:49:00,
2013-02-01 13:51:00,28.6,6.2,29.86,WNW,301,8.0,13.0,38,0.00,,,0.00,Wunderground v.1.15,2013-02-01 18:51:00,
2013-02-01 13:54:00,28.7,6.8,29.86,West,269,6.0,13.0,39,0.00,,,0.00,Wunderground v.1.15,2013-02-01 18:54:00,
2013-02-01 13:56:00,28.7,6.3,29.86,West,277,4.0,13.0,38,0.00,,,0.00,Wunderground v.1.15,2013-02-01 18:56:00,
2013-02-01 13:59:00,28.8,6.3,29.86,NNW,337,2.0,8.0,38,0.00,,,0.00,Wunderground v.1.15,2013-02-01 18:59:00,
2013-02-01 14:01:00,29.0,6.5,29.86,NW,306,16.0,16.0,38,0.00,,,0.00,Wunderground v.1.15,2013-02-01 19:01:00,
2013-02-01 14:02:00,29.0,6.5,29.86,West,281,6.0,16.0,38,0.00,,,0.00,Wunderground v.1.15,2013-02-01 19:02:00,
2013-02-01 14:04:00,29.0,6.5,29.86,NW,311,5.0,16.0,38,0.00,,,0.00,Wunderground v.1.15,2013-02-01 19:04:00,
2013-02-01 14:06:00,28.9,5.8,29.86,West,268,6.0,16.0,37,0.00,,,0.00,Wunderground v.1.15,2013-02-01 19:06:00,
2013-02-01 14:07:00,28.9,6.4,29.86,NW,304,3.0,9.0,38,0.00,,,0.00,Wunderground v.1.15,2013-02-01 19:07:00,
2013-02-01 14:09:00,28.9,6.4,29.86,WSW,254,8.0,11.0,38,0.00,,,0.00,Wunderground v.1.15,2013-02-01 19:09:00,
2013-02-01 14:10:00,28.9,6.4,29.86,WSW,257,12.0,12.0,38,0.00,,,0.00,Wunderground v.1.15,2013-02-01 19:10:00,
2013-02-01 14:11:00,28.7,6.3,29.86,West,269,4.0,12.0,38,0.00,,,0.00,Wunderground v.1.15,2013-02-01 19:11:00,
2013-02-01 14:13:00,28.7,6.8,29.86,West,275,9.0,12.0,39,0.00,,,0.00,Wunderground v.1.15,2013-02-01 19:13:00,
2013-02-01 14:15:00,28.7,6.3,29.86,West,275,7.0,12.0,38,0.00,,,0.00,Wunderground v.1.15,2013-02-01 19:15:00,
2013-02-01 14:17:00,28.7,6.3,29.86,North,355,10.0,10.0,38,0.00,,,0.00,Wunderground v.1.15,2013-02-01 19:17:00,
2013-02-01 14:18:00,28.6,6.2,29.87,NW,313,5.0,14.0,38,0.00,,,0.00,Wunderground v.1.15,2013-02-01 19:18:00,
2013-02-01 14:20:00,28.5,6.1,29.87,WNW,292,12.0,18.0,38,0.00,,,0.00,Wunderground v.1.15,2013-02-01 19:20:00,
2013-02-01 14:22:00,28.4,6.0,29.87,NW,310,12.0,18.0,38,0.00,,,0.00,Wunderground v.1.15,2013-02-01 19:22:00,
2013-02-01 14:24:00,28.3,5.9,29.87,West,270,5.0,18.0,38,0.00,,,0.00,Wunderground v.1.15,2013-02-01 19:24:00,
2013-02-01 14:25:00,28.4,6.0,29.87,West,260,10.0,18.0,38,0.00,,,0.00,Wunderground v.1.15,2013-02-01 19:25:00,
2013-02-01 14:27:00,28.4,5.4,29.87,WNW,294,12.0,12.0,37,0.00,,,0.00,Wunderground v.1.15,2013-02-01 19:27:00,
2013-02-01 14:29:00,28.4,5.4,29.87,WNW,296,4.0,15.0,37,0.00,,,0.00,Wunderground v.1.15,2013-02-01 19:29:00,
2013-02-01 14:30:00,28.3,5.3,29.87,North,9,5.0,15.0,37,0.00,,,0.00,Wunderground v.1.15,2013-02-01 19:30:00,
2013-02-01 14:32:00,28.5,8.8,29.87,WNW,297,4.0,15.0,43,0.00,,,0.00,Wunderground v.1.15,2013-02-01 19:32:00,
2013-02-01 14:34:00,28.6,8.4,29.88,West,280,7.0,15.0,42,0.00,,,0.00,Wunderground v.1.15,2013-02-01 19:34:00,
2013-02-01 14:35:00,28.6,6.7,29.88,NE,46,6.0,15.0,39,0.00,,,0.00,Wunderground v.1.15,2013-02-01 19:35:00,
2013-02-01 14:36:00,28.6,7.3,29.88,WNW,302,1.0,15.0,40,0.00,,,0.00,Wunderground v.1.15,2013-02-01 19:36:00,
2013-02-01 14:38:00,28.7,8.5,29.88,WNW,284,5.0,8.0,42,0.00,,,0.00,Wunderground v.1.15,2013-02-01 19:38:00,
2013-02-01 14:39:00,28.7,9.5,29.88,West,269,10.0,12.0,44,0.00,,,0.00,Wunderground v.1.15,2013-02-01 19:39:00,
2013-02-01 14:40:00,28.6,7.8,29.88,WNW,288,7.0,13.0,41,0.00,,,0.00,Wunderground v.1.15,2013-02-01 19:40:00,
2013-02-01 14:41:00,28.5,7.2,29.88,West,267,7.0,13.0,40,0.00,,,0.00,Wunderground v.1.15,2013-02-01 19:41:00,
2013-02-01 14:43:00,28.4,7.1,29.88,West,259,5.0,13.0,40,0.00,,,0.00,Wunderground v.1.15,2013-02-01 19:43:00,
2013-02-01 14:44:00,28.4,8.7,29.88,NNW,331,12.0,13.0,43,0.00,,,0.00,Wunderground v.1.15,2013-02-01 19:44:00,
2013-02-01 14:46:00,28.4,7.7,29.88,WNW,290,8.0,14.0,41,0.00,,,0.00,Wunderground v.1.15,2013-02-01 19:46:00,
2013-02-01 14:47:00,28.3,7.6,29.88,NNW,342,11.0,19.0,41,0.00,,,0.00,Wunderground v.1.15,2013-02-01 19:47:00,
2013-02-01 14:49:00,28.4,10.2,29.88,NW,311,9.0,19.0,46,0.00,,,0.00,Wunderground v.1.15,2013-02-01 19:49:00,
2013-02-01 14:51:00,28.2,6.9,29.88,NNW,342,7.0,20.0,40,0.00,,,0.00,Wunderground v.1.15,2013-02-01 19:51:00,
2013-02-01 14:52:00,28.1,7.4,29.89,NW,320,10.0,20.0,41,0.00,,,0.00,Wunderground v.1.15,2013-02-01 19:52:00,
2013-02-01 14:54:00,28.3,9.6,29.88,NNW,344,10.0,20.0,45,0.00,,,0.00,Wunderground v.1.15,2013-02-01 19:54:00,
2013-02-01 14:55:00,28.3,9.6,29.88,NNW,344,10.0,20.0,45,0.00,,,0.00,Wunderground v.1.15,2013-02-01 19:55:00,
2013-02-01 14:56:00,28.3,8.6,29.88,WNW,290,3.0,20.0,43,0.00,,,0.00,Wunderground v.1.15,2013-02-01 19:56:00,
2013-02-01 14:57:00,28.3,8.1,29.89,WNW,298,7.0,12.0,42,0.00,,,0.00,Wunderground v.1.15,2013-02-01 19:57:00,
2013-02-01 14:59:00,28.2,8.0,29.89,West,260,10.0,15.0,42,0.00,,,0.00,Wunderground v.1.15,2013-02-01 19:59:00,
2013-02-01 15:00:00,28.1,7.4,29.89,WNW,289,8.0,15.0,41,0.00,,,0.00,Wunderground v.1.15,2013-02-01 20:00:00,
2013-02-01 15:01:00,28.1,7.4,29.89,North,5,8.0,15.0,41,0.00,,,0.00,Wunderground v.1.15,2013-02-01 20:01:00,
2013-02-01 15:02:00,28.0,8.4,29.89,WNW,285,6.0,15.0,43,0.00,,,0.00,Wunderground v.1.15,2013-02-01 20:02:00,
2013-02-01 15:04:00,28.0,7.8,29.89,WNW,294,5.0,15.0,42,0.00,,,0.00,Wunderground v.1.15,2013-02-01 20:04:00,
2013-02-01 15:06:00,27.9,7.7,29.89,WNW,292,8.0,15.0,42,0.00,,,0.00,Wunderground v.1.15,2013-02-01 20:06:00,
2013-02-01 15:07:00,27.8,7.1,29.89,West,260,7.0,9.0,41,0.00,,,0.00,Wunderground v.1.15,2013-02-01 20:07:00,
2013-02-01 15:10:00,27.9,7.7,29.89,WNW,296,6.0,10.0,42,0.00,,,0.00,Wunderground v.1.15,2013-02-01 20:10:00,
2013-02-01 15:11:00,27.9,7.2,29.89,West,275,12.0,14.0,41,0.00,,,0.00,Wunderground v.1.15,2013-02-01 20:11:00,
2013-02-01 15:12:00,27.8,6.6,29.89,NW,311,10.0,19.0,40,0.00,,,0.00,Wunderground v.1.15,2013-02-01 20:12:00,
2013-02-01 15:15:00,27.7,6.5,29.89,WNW,290,14.0,19.0,40,0.00,,,0.00,Wunderground v.1.15,2013-02-01 20:15:00,
2013-02-01 15:16:00,27.7,6.5,29.89,NW,325,3.0,19.0,40,0.00,,,0.00,Wunderground v.1.15,2013-02-01 20:16:00,
2013-02-01 15:17:00,27.7,6.5,29.90,West,262,10.0,11.0,40,0.00,,,0.00,Wunderground v.1.15,2013-02-01 20:17:00,
2013-02-01 15:20:00,27.6,6.4,29.90,NNW,341,7.0,16.0,40,0.00,,,0.00,Wunderground v.1.15,2013-02-01 20:20:00,
2013-02-01 15:21:00,27.6,6.4,29.90,NW,322,10.0,16.0,40,0.00,,,0.00,Wunderground v.1.15,2013-02-01 20:21:00,
2013-02-01 15:22:00,27.6,6.4,29.90,West,271,6.0,16.0,40,0.00,,,0.00,Wunderground v.1.15,2013-02-01 20:22:00,
2013-02-01 15:25:00,27.7,6.5,29.90,WNW,302,17.0,17.0,40,0.00,,,0.00,Wunderground v.1.15,2013-02-01 20:25:00,
2013-02-01 15:26:00,27.6,6.4,29.91,NW,317,10.0,19.0,40,0.00,,,0.00,Wunderground v.1.15,2013-02-01 20:26:00,
2013-02-01 15:27:00,27.6,6.4,29.91,NE,44,8.0,9.0,40,0.00,,,0.00,Wunderground v.1.15,2013-02-01 20:27:00,
2013-02-01 15:30:00,27.6,6.4,29.90,NW,309,8.0,19.0,40,0.00,,,0.00,Wunderground v.1.15,2013-02-01 20:30:00,
2013-02-01 15:31:00,27.6,6.4,29.91,WSW,256,10.0,19.0,40,0.00,,,0.00,Wunderground v.1.15,2013-02-01 20:31:00,
2013-02-01 15:32:00,27.5,5.7,29.91,SW,229,5.0,19.0,39,0.00,,,0.00,Wunderground v.1.15,2013-02-01 20:32:00,
2013-02-01 15:33:00,27.5,6.3,29.91,NW,315,8.0,19.0,40,0.00,,,0.00,Wunderground v.1.15,2013-02-01 20:33:00,
2013-02-01 15:36:00,27.4,6.2,29.91,WNW,292,9.0,19.0,40,0.00,,,0.00,Wunderground v.1.15,2013-02-01 20:36:00,
2013-02-01 15:37:00,27.4,6.2,29.91,WNW,289,9.0,17.0,40,0.00,,,0.00,Wunderground v.1.15,2013-02-01 20:37:00,
2013-02-01 15:38:00,27.4,6.8,29.91,WNW,296,10.0,17.0,41,0.00,,,0.00,Wunderground v.1.15,2013-02-01 20:38:00,
2013-02-01 15:41:00,27.3,6.7,29.91,West,281,4.0,17.0,41,0.00,,,0.00,Wunderground v.1.15,2013-02-01 20:41:00,
2013-02-01 15:42:00,27.3,6.7,29.92,West,271,8.0,17.0,41,0.00,,,0.00,Wunderground v.1.15,2013-02-01 20:42:00,
2013-02-01 15:43:00,27.3,6.7,29.92,WNW,295,14.0,17.0,41,0.00,,,0.00,Wunderground v.1.15,2013-02-01 20:43:00,
2013-02-01 15:46:00,27.2,6.6,29.92,NW,314,9.0,18.0,41,0.00,,,0.00,Wunderground v.1.15,2013-02-01 20:46:00,
2013-02-01 15:47:00,27.2,6.6,29.92,North,5,7.0,9.0,41,0.00,,,0.00,Wunderground v.1.15,2013-02-01 20:47:00,
2013-02-01 15:48:00,27.1,6.5,29.92,WSW,246,4.0,14.0,41,0.00,,,0.00,Wunderground v.1.15,2013-02-01 20:48:00,
2013-02-01 15:52:00,27.0,6.4,29.92,WSW,250,11.0,18.0,41,0.00,,,0.00,Wunderground v.1.15,2013-02-01 20:52:00,
2013-02-01 15:53:00,27.0,5.8,29.92,NW,318,9.0,18.0,40,0.00,,,0.00,Wunderground v.1.15,2013-02-01 20:53:00,
2013-02-01 15:57:00,27.0,6.4,29.92,NNW,337,5.0,13.0,41,0.00,,,0.00,Wunderground v.1.15,2013-02-01 20:57:00,
2013-02-01 15:58:00,27.0,5.8,29.92,WNW,282,5.0,14.0,40,0.00,,,0.00,Wunderground v.1.15,2013-02-01 20:58:00,
2013-02-01 15:59:00,27.0,5.8,29.92,West,261,12.0,14.0,40,0.00,,,0.00,Wunderground v.1.15,2013-02-01 20:59:00,
2013-02-01 16:02:00,27.0,5.8,29.93,NW,308,12.0,14.0,40,0.00,,,0.00,Wunderground v.1.15,2013-02-01 21:02:00,
2013-02-01 16:03:00,27.0,5.8,29.92,NNW,336,8.0,15.0,40,0.00,,,0.00,Wunderground v.1.15,2013-02-01 21:03:00,
2013-02-01 16:04:00,26.9,5.8,29.92,West,261,9.0,15.0,40,0.00,,,0.00,Wunderground v.1.15,2013-02-01 21:04:00,
2013-02-01 16:07:00,27.0,5.8,29.93,WNW,294,6.0,8.0,40,0.00,,,0.00,Wunderground v.1.15,2013-02-01 21:07:00,
2013-02-01 16:08:00,27.0,6.4,29.93,West,263,12.0,12.0,41,0.00,,,0.00,Wunderground v.1.15,2013-02-01 21:08:00,
2013-02-01 16:09:00,27.0,6.4,29.93,NNW,331,10.0,13.0,41,0.00,,,0.00,Wunderground v.1.15,2013-02-01 21:09:00,
2013-02-01 16:12:00,27.3,8.7,29.93,West,261,5.0,13.0,45,0.00,,,0.00,Wunderground v.1.15,2013-02-01 21:12:00,
2013-02-01 16:14:00,27.4,9.8,29.93,NNW,337,7.0,14.0,47,0.00,,,0.00,Wunderground v.1.15,2013-02-01 21:14:00,
2013-02-01 16:17:00,27.2,6.6,29.94,NNW,336,6.0,13.0,41,0.00,,,0.00,Wunderground v.1.15,2013-02-01 21:17:00,
2013-02-01 16:19:00,27.1,6.5,29.94,West,281,15.0,17.0,41,0.00,,,0.00,Wunderground v.1.15,2013-02-01 21:19:00,
2013-02-01 16:23:00,27.0,6.9,29.94,WSW,251,9.0,17.0,42,0.00,,,0.00,Wunderground v.1.15,2013-02-01 21:23:00,
2013-02-01 16:24:00,27.0,7.4,29.94,West,269,14.0,17.0,43,0.00,,,0.00,Wunderground v.1.15,2013-02-01 21:24:00,
2013-02-01 16:25:00,27.0,7.4,29.94,WNW,301,8.0,17.0,43,0.00,,,0.00,Wunderground v.1.15,2013-02-01 21:25:00,
2013-02-01 16:28:00,27.3,14.5,29.94,WSW,254,4.0,9.0,58,0.00,,,0.00,Wunderground v.1.15,2013-02-01 21:28:00,
2013-02-01 16:29:00,27.4,11.2,29.95,WSW,246,2.0,9.0,50,0.00,,,0.00,Wunderground v.1.15,2013-02-01 21:29:00,
2013-02-01 16:30:00,27.4,11.2,29.95,West,264,6.0,9.0,50,0.00,,,0.00,Wunderground v.1.15,2013-02-01 21:30:00,
2013-02-01 16:33:00,27.1,8.0,29.95,WSW,254,5.0,11.0,44,0.00,,,0.00,Wunderground v.1.15,2013-02-01 21:33:00,
2013-02-01 16:34:00,27.0,8.0,29.95,NNW,329,13.0,13.0,44,0.00,,,0.00,Wunderground v.1.15,2013-02-01 21:34:00,
2013-02-01 16:35:00,27.0,8.5,29.95,NNW,337,4.0,14.0,45,0.00,,,0.00,Wunderground v.1.15,2013-02-01 21:35:00,
2013-02-01 16:38:00,26.9,6.8,29.95,WNW,302,8.0,19.0,42,0.00,,,0.00,Wunderground v.1.15,2013-02-01 21:38:00,
2013-02-01 16:39:00,26.8,7.3,29.95,NW,309,7.0,19.0,43,0.00,,,0.00,Wunderground v.1.15,2013-02-01 21:39:00,
2013-02-01 16:40:00,26.9,8.4,29.96,West,278,3.0,19.0,45,0.00,,,0.00,Wunderground v.1.15,2013-02-01 21:40:00,
2013-02-01 16:41:00,26.9,8.4,29.96,WSW,254,2.0,19.0,45,0.00,,,0.00,Wunderground v.1.15,2013-02-01 21:41:00,
2013-02-01 16:43:00,26.8,8.3,29.96,WNW,284,8.0,19.0,45,0.00,,,0.00,Wunderground v.1.15,2013-02-01 21:43:00,
2013-02-01 16:44:00,26.8,6.7,29.96,NW,321,13.0,19.0,42,0.00,,,0.00,Wunderground v.1.15,2013-02-01 21:44:00,
2013-02-01 16:46:00,26.7,6.6,29.96,WNW,286,11.0,19.0,42,0.00,,,0.00,Wunderground v.1.15,2013-02-01 21:46:00,
2013-02-01 16:48:00,26.7,7.2,29.96,NW,313,10.0,15.0,43,0.00,,,0.00,Wunderground v.1.15,2013-02-01 21:48:00,
2013-02-01 16:50:00,26.7,7.2,29.96,West,267,8.0,19.0,43,0.00,,,0.00,Wunderground v.1.15,2013-02-01 21:50:00,
2013-02-01 16:51:00,26.6,6.6,29.96,West,272,10.0,19.0,42,0.00,,,0.00,Wunderground v.1.15,2013-02-01 21:51:00,
2013-02-01 16:52:00,26.7,7.2,29.96,WNW,287,7.0,19.0,43,0.00,,,0.00,Wunderground v.1.15,2013-02-01 21:52:00,
2013-02-01 16:53:00,26.6,6.6,29.97,NW,317,10.0,19.0,42,0.00,,,0.00,Wunderground v.1.15,2013-02-01 21:53:00,
2013-02-01 16:55:00,26.6,6.6,29.97,North,355,4.0,19.0,42,0.00,,,0.00,Wunderground v.1.15,2013-02-01 21:55:00,
2013-02-01 16:56:00,26.6,6.6,29.96,WSW,247,9.0,19.0,42,0.00,,,0.00,Wunderground v.1.15,2013-02-01 21:56:00,
2013-02-01 16:57:00,26.5,5.9,29.97,West,273,4.0,8.0,41,0.00,,,0.00,Wunderground v.1.15,2013-02-01 21:57:00,
2013-02-01 16:59:00,26.5,6.5,29.97,West,259,4.0,8.0,42,0.00,,,0.00,Wunderground v.1.15,2013-02-01 21:59:00,
2013-02-01 17:00:00,26.5,6.5,29.97,West,261,12.0,12.0,42,0.00,,,0.00,Wunderground v.1.15,2013-02-01 22:00:00,
2013-02-01 17:01:00,26.5,6.5,29.97,West,264,10.0,12.0,42,0.00,,,0.00,Wunderground v.1.15,2013-02-01 22:01:00,
2013-02-01 17:03:00,26.5,6.5,29.97,West,273,4.0,14.0,42,0.00,,,0.00,Wunderground v.1.15,2013-02-01 22:03:00,
2013-02-01 17:04:00,26.5,6.5,29.97,NW,305,6.0,14.0,42,0.00,,,0.00,Wunderground v.1.15,2013-02-01 22:04:00,
2013-02-01 17:05:00,26.5,6.5,29.97,West,263,9.0,14.0,42,0.00,,,0.00,Wunderground v.1.15,2013-02-01 22:05:00,
2013-02-01 17:06:00,26.4,6.4,29.97,NW,311,7.0,18.0,42,0.00,,,0.00,Wunderground v.1.15,2013-02-01 22:06:00,
2013-02-01 17:08:00,26.5,5.9,29.97,WNW,292,13.0,13.0,41,0.00,,,0.00,Wunderground v.1.15,2013-02-01 22:08:00,
2013-02-01 17:09:00,26.5,6.5,29.98,SW,234,7.0,13.0,42,0.00,,,0.00,Wunderground v.1.15,2013-02-01 22:09:00,
2013-02-01 17:10:00,26.5,6.5,29.98,WNW,288,12.0,13.0,42,0.00,,,0.00,Wunderground v.1.15,2013-02-01 22:10:00,
2013-02-01 17:11:00,26.4,6.4,29.98,WSW,238,6.0,13.0,42,0.00,,,0.00,Wunderground v.1.15,2013-02-01 22:11:00,
2013-02-01 17:13:00,26.4,6.4,29.98,WNW,290,3.0,13.0,42,0.00,,,0.00,Wunderground v.1.15,2013-02-01 22:13:00,
2013-02-01 17:14:00,26.4,6.4,29.98,WNW,291,15.0,15.0,42,0.00,,,0.00,Wunderground v.1.15,2013-02-01 22:14:00,
2013-02-01 17:15:00,26.4,6.4,29.98,WNW,296,4.0,15.0,42,0.00,,,0.00,Wunderground v.1.15,2013-02-01 22:15:00,
2013-02-01 17:17:00,26.4,6.4,29.98,WNW,291,8.0,8.0,42,0.00,,,0.00,Wunderground v.1.15,2013-02-01 22:17:00,
2013-02-01 17:18:00,26.3,6.3,29.99,WSW,252,12.0,12.0,42,0.00,,,0.00,Wunderground v.1.15,2013-02-01 22:18:00,
2013-02-01 17:19:00,26.4,6.4,29.99,WSW,243,12.0,14.0,42,0.00,,,0.00,Wunderground v.1.15,2013-02-01 22:19:00,
2013-02-01 17:20:00,26.3,6.3,29.99,WSW,242,7.0,14.0,42,0.00,,,0.00,Wunderground v.1.15,2013-02-01 22:20:00,
2013-02-01 17:22:00,26.3,6.3,29.99,WNW,293,6.0,14.0,42,0.00,,,0.00,Wunderground v.1.15,2013-02-01 22:22:00,
2013-02-01 17:24:00,26.3,6.8,29.99,WSW,250,5.0,18.0,43,0.00,,,0.00,Wunderground v.1.15,2013-02-01 22:24:00,
2013-02-01 17:25:00,26.3,6.8,29.99,West,269,5.0,18.0,43,0.00,,,0.00,Wunderground v.1.15,2013-02-01 22:25:00,
2013-02-01 17:27:00,26.2,6.7,29.99,WNW,290,4.0,7.0,43,0.00,,,0.00,Wunderground v.1.15,2013-02-01 22:27:00,
2013-02-01 17:29:00,26.2,6.7,29.99,West,269,3.0,11.0,43,0.00,,,0.00,Wunderground v.1.15,2013-02-01 22:29:00,
2013-02-01 17:30:00,26.2,7.2,29.99,WNW,286,3.0,11.0,44,0.00,,,0.00,Wunderground v.1.15,2013-02-01 22:30:00,
2013-02-01 17:33:00,26.1,7.1,29.99,WSW,257,4.0,11.0,44,0.00,,,0.00,Wunderground v.1.15,2013-02-01 22:33:00,
2013-02-01 17:34:00,26.1,7.1,30.00,WSW,242,6.0,11.0,44,0.00,,,0.00,Wunderground v.1.15,2013-02-01 22:34:00,
2013-02-01 17:35:00,26.1,7.1,30.00,WNW,303,6.0,11.0,44,0.00,,,0.00,Wunderground v.1.15,2013-02-01 22:35:00,
2013-02-01 17:38:00,26.1,7.1,30.00,NW,308,10.0,11.0,44,0.00,,,0.00,Wunderground v.1.15,2013-02-01 22:38:00,
2013-02-01 17:39:00,26.1,7.1,30.00,NNW,330,10.0,11.0,44,0.00,,,0.00,Wunderground v.1.15,2013-02-01 22:39:00,
2013-02-01 17:40:00,26.1,7.6,30.00,West,275,5.0,11.0,45,0.00,,,0.00,Wunderground v.1.15,2013-02-01 22:40:00,
2013-02-01 17:43:00,26.1,7.6,30.01,West,275,5.0,11.0,45,0.00,,,0.00,Wunderground v.1.15,2013-02-01 22:43:00,
2013-02-01 17:45:00,26.1,7.6,30.01,NW,304,3.0,11.0,45,0.00,,,0.00,Wunderground v.1.15,2013-02-01 22:45:00,
2013-02-01 17:46:00,26.1,7.6,30.01,West,267,7.0,11.0,45,0.00,,,0.00,Wunderground v.1.15,2013-02-01 22:46:00,
2013-02-01 17:49:00,26.1,8.1,30.01,WNW,288,4.0,10.0,46,0.00,,,0.00,Wunderground v.1.15,2013-02-01 22:49:00,
2013-02-01 17:50:00,26.0,7.5,30.01,WNW,284,7.0,15.0,45,0.00,,,0.00,Wunderground v.1.15,2013-02-01 22:50:00,
2013-02-01 17:51:00,26.0,8.0,30.01,WSW,244,11.0,15.0,46,0.00,,,0.00,Wunderground v.1.15,2013-02-01 22:51:00,
2013-02-01 17:54:00,25.9,7.9,30.02,WSW,257,12.0,15.0,46,0.00,,,0.00,Wunderground v.1.15,2013-02-01 22:54:00,
2013-02-01 17:55:00,25.9,7.9,30.02,NNW,338,8.0,15.0,46,0.00,,,0.00,Wunderground v.1.15,2013-02-01 22:55:00,
2013-02-01 17:56:00,25.8,7.8,30.02,West,272,6.0,15.0,46,0.00,,,0.00,Wunderground v.1.15,2013-02-01 22:56:00,
2013-02-01 17:57:00,25.8,7.8,30.02,WNW,288,7.0,7.0,46,0.00,,,0.00,Wunderground v.1.15,2013-02-01 22:57:00,
2013-02-01 17:59:00,25.8,7.8,30.02,West,273,5.0,13.0,46,0.00,,,0.00,Wunderground v.1.15,2013-02-01 22:59:00,
2013-02-01 18:00:00,25.8,7.8,30.02,West,281,2.0,13.0,46,0.00,,,0.00,Wunderground v.1.15,2013-02-01 23:00:00,
2013-02-01 18:01:00,25.8,8.3,30.02,WSW,238,5.0,13.0,47,0.00,,,0.00,Wunderground v.1.15,2013-02-01 23:01:00,
2013-02-01 18:02:00,25.8,8.3,30.02,NNW,340,9.0,13.0,47,0.00,,,0.00,Wunderground v.1.15,2013-02-01 23:02:00,
2013-02-01 18:05:00,25.8,7.8,30.03,West,273,8.0,13.0,46,0.00,,,0.00,Wunderground v.1.15,2013-02-01 23:05:00,
2013-02-01 18:06:00,25.7,7.7,30.03,WNW,300,2.0,13.0,46,0.00,,,0.00,Wunderground v.1.15,2013-02-01 23:06:00,
2013-02-01 18:07:00,25.7,7.7,30.03,NNW,348,6.0,13.0,46,0.00,,,0.00,Wunderground v.1.15,2013-02-01 23:07:00,
2013-02-01 18:10:00,25.7,7.7,30.03,West,265,4.0,13.0,46,0.00,,,0.00,Wunderground v.1.15,2013-02-01 23:10:00,
2013-02-01 18:11:00,25.7,7.7,30.04,West,280,4.0,13.0,46,0.00,,,0.00,Wunderground v.1.15,2013-02-01 23:11:00,
2013-02-01 18:12:00,25.7,8.2,30.03,NNW,331,4.0,13.0,47,0.00,,,0.00,Wunderground v.1.15,2013-02-01 23:12:00,
2013-02-01 18:15:00,25.7,7.7,30.04,North,355,6.0,14.0,46,0.00,,,0.00,Wunderground v.1.15,2013-02-01 23:15:00,
2013-02-01 18:16:00,25.7,8.2,30.04,WNW,291,7.0,14.0,47,0.00,,,0.00,Wunderground v.1.15,2013-02-01 23:16:00,
2013-02-01 18:17:00,25.7,8.2,30.04,NNW,336,4.0,9.0,47,0.00,,,0.00,Wunderground v.1.15,2013-02-01 23:17:00,
2013-02-01 18:20:00,25.6,8.1,30.04,NW,319,5.0,10.0,47,0.00,,,0.00,Wunderground v.1.15,2013-02-01 23:20:00,
2013-02-01 18:21:00,25.6,8.1,30.05,West,277,4.0,10.0,47,0.00,,,0.00,Wunderground v.1.15,2013-02-01 23:21:00,
2013-02-01 18:22:00,25.6,8.1,30.05,West,264,5.0,10.0,47,0.00,,,0.00,Wunderground v.1.15,2013-02-01 23:22:00,
2013-02-01 18:25:00,25.6,8.1,30.05,West,259,7.0,12.0,47,0.00,,,0.00,Wunderground v.1.15,2013-02-01 23:25:00,
2013-02-01 18:26:00,25.5,8.0,30.05,West,275,7.0,17.0,47,0.00,,,0.00,Wunderground v.1.15,2013-02-01 23:26:00,
2013-02-01 18:27:00,25.5,8.0,30.05,West,262,5.0,6.0,47,0.00,,,0.00,Wunderground v.1.15,2013-02-01 23:27:00,
2013-02-01 18:30:00,25.4,7.9,30.05,WNW,294,10.0,20.0,47,0.00,,,0.00,Wunderground v.1.15,2013-02-01 23:30:00,
2013-02-01 18:31:00,25.4,7.9,30.06,WSW,248,9.0,20.0,47,0.00,,,0.00,Wunderground v.1.15,2013-02-01 23:31:00,
2013-02-01 18:32:00,25.4,7.9,30.06,WNW,295,9.0,20.0,47,0.00,,,0.00,Wunderground v.1.15,2013-02-01 23:32:00,
2013-02-01 18:35:00,25.4,7.9,30.06,NNW,327,4.0,20.0,47,0.00,,,0.00,Wunderground v.1.15,2013-02-01 23:35:00,
2013-02-01 18:37:00,25.3,7.9,30.06,WNW,300,5.0,8.0,47,0.00,,,0.00,Wunderground v.1.15,2013-02-01 23:37:00,
2013-02-01 18:41:00,25.2,7.8,30.07,SW,223,5.0,11.0,47,0.00,,,0.00,Wunderground v.1.15,2013-02-01 23:41:00,
2013-02-01 18:42:00,25.2,7.8,30.07,West,263,4.0,11.0,47,0.00,,,0.00,Wunderground v.1.15,2013-02-01 23:42:00,
2013-02-01 18:43:00,25.2,7.8,30.07,NW,319,3.0,11.0,47,0.00,,,0.00,Wunderground v.1.15,2013-02-01 23:43:00,
2013-02-01 18:46:00,25.2,8.2,30.07,West,280,6.0,15.0,48,0.00,,,0.00,Wunderground v.1.15,2013-02-01 23:46:00,
2013-02-01 18:47:00,25.2,8.2,30.07,North,360,9.0,9.0,48,0.00,,,0.00,Wunderground v.1.15,2013-02-01 23:47:00,
2013-02-01 18:48:00,25.1,7.7,30.07,West,263,15.0,18.0,47,0.00,,,0.00,Wunderground v.1.15,2013-02-01 23:48:00,
2013-02-01 18:51:00,25.1,8.1,30.07,WNW,300,3.0,18.0,48,0.00,,,0.00,Wunderground v.1.15,2013-02-01 23:51:00,
2013-02-01 18:52:00,25.1,8.1,30.07,WNW,299,6.0,18.0,48,0.00,,,0.00,Wunderground v.1.15,2013-02-01 23:52:00,
2013-02-01 18:53:00,25.1,8.1,30.07,WNW,286,8.0,18.0,48,0.00,,,0.00,Wunderground v.1.15,2013-02-01 23:53:00,
2013-02-01 18:56:00,24.9,8.0,30.08,West,275,3.0,18.0,48,0.00,,,0.00,Wunderground v.1.15,2013-02-01 23:56:00,
2013-02-01 18:57:00,24.9,8.0,30.08,West,266,8.0,10.0,48,0.00,,,0.00,Wunderground v.1.15,2013-02-01 23:57:00,
2013-02-01 18:58:00,24.9,8.0,30.08,WSW,258,9.0,12.0,48,0.00,,,0.00,Wunderground v.1.15,2013-02-01 23:58:00,
2013-02-01 19:01:00,24.7,8.2,30.08,NW,315,4.0,25.0,49,0.00,,,0.00,Wunderground v.1.15,2013-02-02 00:01:00,
2013-02-01 19:02:00,24.7,8.2,30.08,West,265,14.0,25.0,49,0.00,,,0.00,Wunderground v.1.15,2013-02-02 00:02:00,
2013-02-01 19:03:00,24.6,8.6,30.08,West,265,12.0,25.0,50,0.00,,,0.00,Wunderground v.1.15,2013-02-02 00:03:00,
2013-02-01 19:06:00,24.5,8.5,30.08,WNW,303,4.0,25.0,50,0.00,,,0.00,Wunderground v.1.15,2013-02-02 00:06:00,
2013-02-01 19:07:00,24.4,8.4,30.09,West,279,7.0,15.0,50,0.00,,,0.00,Wunderground v.1.15,2013-02-02 00:07:00,
2013-02-01 19:08:00,24.4,8.4,30.09,WNW,288,3.0,15.0,50,0.00,,,0.00,Wunderground v.1.15,2013-02-02 00:08:00,
2013-02-01 19:09:00,24.4,8.4,30.09,West,270,6.0,15.0,50,0.00,,,0.00,Wunderground v.1.15,2013-02-02 00:09:00,
2013-02-01 19:12:00,24.3,9.2,30.09,WNW,298,9.0,15.0,52,0.00,,,0.00,Wunderground v.1.15,2013-02-02 00:12:00,
2013-02-01 19:13:00,24.3,9.6,30.09,WNW,300,7.0,15.0,53,0.00,,,0.00,Wunderground v.1.15,2013-02-02 00:13:00,
2013-02-01 19:15:00,24.3,9.6,30.09,West,279,13.0,15.0,53,0.00,,,0.00,Wunderground v.1.15,2013-02-02 00:15:00,
2013-02-01 19:17:00,24.2,8.7,30.09,West,275,2.0,7.0,51,0.00,,,0.00,Wunderground v.1.15,2013-02-02 00:17:00,
2013-02-01 19:18:00,24.3,9.6,30.09,West,271,5.0,11.0,53,0.00,,,0.00,Wunderground v.1.15,2013-02-02 00:18:00,
2013-02-01 19:19:00,24.3,9.6,30.09,West,269,3.0,11.0,53,0.00,,,0.00,Wunderground v.1.15,2013-02-02 00:19:00,
2013-02-01 19:20:00,24.2,9.1,30.09,West,263,4.0,17.0,52,0.00,,,0.00,Wunderground v.1.15,2013-02-02 00:20:00,
2013-02-01 19:22:00,24.2,9.1,30.09,NW,311,5.0,17.0,52,0.00,,,0.00,Wunderground v.1.15,2013-02-02 00:22:00,
2013-02-01 19:23:00,24.1,9.0,30.09,WSW,244,6.0,17.0,52,0.00,,,0.00,Wunderground v.1.15,2013-02-02 00:23:00,
2013-02-01 19:24:00,24.1,9.0,30.09,West,261,3.0,17.0,52,0.00,,,0.00,Wunderground v.1.15,2013-02-02 00:24:00,
2013-02-01 19:26:00,24.0,8.5,30.10,West,263,7.0,17.0,51,0.00,,,0.00,Wunderground v.1.15,2013-02-02 00:26:00,
2013-02-01 19:27:00,23.9,8.4,30.09,NW,304,11.0,11.0,51,0.00,,,0.00,Wunderground v.1.15,2013-02-02 00:27:00,
2013-02-01 19:28:00,23.9,8.4,30.10,WNW,300,6.0,11.0,51,0.00,,,0.00,Wunderground v.1.15,2013-02-02 00:28:00,
2013-02-01 19:29:00,23.9,8.4,30.10,WSW,258,9.0,13.0,51,0.00,,,0.00,Wunderground v.1.15,2013-02-02 00:29:00,
2013-02-01 19:31:00,23.8,8.7,30.10,WNW,283,3.0,13.0,52,0.00,,,0.00,Wunderground v.1.15,2013-02-02 00:31:00,
2013-02-01 19:32:00,23.8,8.7,30.10,WNW,286,4.0,13.0,52,0.00,,,0.00,Wunderground v.1.15,2013-02-02 00:32:00,
2013-02-01 19:34:00,23.7,8.6,30.10,West,262,3.0,13.0,52,0.00,,,0.00,Wunderground v.1.15,2013-02-02 00:34:00,
2013-02-01 19:35:00,23.7,8.6,30.10,North,9,1.0,13.0,52,0.00,,,0.00,Wunderground v.1.15,2013-02-02 00:35:00,
2013-02-01 19:36:00,23.6,8.5,30.10,WSW,257,6.0,13.0,52,0.00,,,0.00,Wunderground v.1.15,2013-02-02 00:36:00,
2013-02-01 19:37:00,23.6,8.5,30.10,West,268,4.0,6.0,52,0.00,,,0.00,Wunderground v.1.15,2013-02-02 00:37:00,
2013-02-01 19:39:00,23.6,8.5,30.10,West,263,3.0,7.0,52,0.00,,,0.00,Wunderground v.1.15,2013-02-02 00:39:00,
2013-02-01 19:40:00,23.5,8.4,30.10,NW,308,5.0,9.0,52,0.00,,,0.00,Wunderground v.1.15,2013-02-02 00:40:00,
2013-02-01 19:42:00,23.5,8.4,30.11,WSW,252,10.0,13.0,52,0.00,,,0.00,Wunderground v.1.15,2013-02-02 00:42:00,
2013-02-01 19:43:00,23.5,8.0,30.11,WNW,300,8.0,13.0,51,0.00,,,0.00,Wunderground v.1.15,2013-02-02 00:43:00,
2013-02-01 19:44:00,23.5,8.4,30.10,WSW,257,2.0,13.0,52,0.00,,,0.00,Wunderground v.1.15,2013-02-02 00:44:00,
2013-02-01 19:45:00,23.5,8.4,30.10,NW,305,10.0,13.0,52,0.00,,,0.00,Wunderground v.1.15,2013-02-02 00:45:00,
2013-02-01 19:47:00,23.4,7.9,30.11,West,271,5.0,7.0,51,0.00,,,0.00,Wunderground v.1.15,2013-02-02 00:47:00,
2013-02-01 19:48:00,23.4,8.3,30.11,North,360,7.0,9.0,52,0.00,,,0.00,Wunderground v.1.15,2013-02-02 00:48:00,
2013-02-01 19:50:00,23.4,8.3,30.11,West,273,9.0,9.0,52,0.00,,,0.00,Wunderground v.1.15,2013-02-02 00:50:00,
2013-02-01 19:52:00,23.4,7.9,30.11,NW,309,5.0,13.0,51,0.00,,,0.00,Wunderground v.1.15,2013-02-02 00:52:00,
2013-02-01 19:53:00,23.4,7.9,30.11,NNW,334,5.0,16.0,51,0.00,,,0.00,Wunderground v.1.15,2013-02-02 00:53:00,
2013-02-01 19:55:00,23.4,7.9,30.11,WNW,303,6.0,16.0,51,0.00,,,0.00,Wunderground v.1.15,2013-02-02 00:55:00,
2013-02-01 19:57:00,23.4,7.9,30.11,NW,306,5.0,7.0,51,0.00,,,0.00,Wunderground v.1.15,2013-02-02 00:57:00,
2013-02-01 19:59:00,23.4,7.9,30.11,South,185,5.0,16.0,51,0.00,,,0.00,Wunderground v.1.15,2013-02-02 00:59:00,
2013-02-01 20:00:00,23.3,7.8,30.11,West,279,4.0,16.0,51,0.00,,,0.00,Wunderground v.1.15,2013-02-02 01:00:00,
2013-02-01 20:01:00,23.3,7.8,30.11,West,263,7.0,16.0,51,0.00,,,0.00,Wunderground v.1.15,2013-02-02 01:01:00,
2013-02-01 20:02:00,23.3,7.8,30.11,West,268,5.0,16.0,51,0.00,,,0.00,Wunderground v.1.15,2013-02-02 01:02:00,
2013-02-01 20:04:00,23.3,7.8,30.12,WSW,240,2.0,16.0,51,0.00,,,0.00,Wunderground v.1.15,2013-02-02 01:04:00,
2013-02-01 20:05:00,23.3,7.8,30.12,West,270,3.0,16.0,51,0.00,,,0.00,Wunderground v.1.15,2013-02-02 01:05:00,
2013-02-01 20:06:00,23.3,7.8,30.12,West,280,6.0,16.0,51,0.00,,,0.00,Wunderground v.1.15,2013-02-02 01:06:00,
2013-02-01 20:08:00,23.3,7.4,30.12,West,273,7.0,14.0,50,0.00,,,0.00,Wunderground v.1.15,2013-02-02 01:08:00,
2013-02-01 20:10:00,23.3,6.9,30.12,North,360,10.0,14.0,49,0.00,,,0.00,Wunderground v.1.15,2013-02-02 01:10:00,
2013-02-01 20:12:00,23.3,7.4,30.12,WSW,256,4.0,14.0,50,0.00,,,0.00,Wunderground v.1.15,2013-02-02 01:12:00,
2013-02-01 20:13:00,23.3,6.9,30.12,West,281,13.0,15.0,49,0.00,,,0.00,Wunderground v.1.15,2013-02-02 01:13:00,
2013-02-01 20:15:00,23.2,6.8,30.12,WNW,284,6.0,15.0,49,0.00,,,0.00,Wunderground v.1.15,2013-02-02 01:15:00,
2013-02-01 20:16:00,23.2,6.8,30.12,NW,304,14.0,16.0,49,0.00,,,0.00,Wunderground v.1.15,2013-02-02 01:16:00,
2013-02-01 20:17:00,23.2,6.8,30.13,West,271,5.0,11.0,49,0.00,,,0.00,Wunderground v.1.15,2013-02-02 01:17:00,
2013-02-01 20:18:00,23.2,6.8,30.13,WSW,246,9.0,15.0,49,0.00,,,0.00,Wunderground v.1.15,2013-02-02 01:18:00,
2013-02-01 20:20:00,23.2,6.8,30.13,West,271,8.0,15.0,49,0.00,,,0.00,Wunderground v.1.15,2013-02-02 01:20:00,
2013-02-01 20:21:00,23.1,6.7,30.13,NW,315,6.0,15.0,49,0.00,,,0.00,Wunderground v.1.15,2013-02-02 01:21:00,
2013-02-01 20:22:00,23.1,6.3,30.13,WNW,290,4.0,15.0,48,0.00,,,0.00,Wunderground v.1.15,2013-02-02 01:22:00,
2013-02-01 20:24:00,23.1,6.3,30.13,West,268,3.0,16.0,48,0.00,,,0.00,Wunderground v.1.15,2013-02-02 01:24:00,
2013-02-01 20:25:00,23.1,6.7,30.13,NW,317,5.0,16.0,49,0.00,,,0.00,Wunderground v.1.15,2013-02-02 01:25:00,
2013-02-01 20:26:00,23.1,6.3,30.13,NW,315,11.0,16.0,48,0.00,,,0.00,Wunderground v.1.15,2013-02-02 01:26:00,
2013-02-01 20:28:00,23.0,6.2,30.13,WSW,237,13.0,13.0,48,0.00,,,0.00,Wunderground v.1.15,2013-02-02 01:28:00,
2013-02-01 20:29:00,23.0,6.2,30.13,NW,311,9.0,15.0,48,0.00,,,0.00,Wunderground v.1.15,2013-02-02 01:29:00,
2013-02-01 20:31:00,23.0,5.7,30.13,WSW,244,3.0,18.0,47,0.00,,,0.00,Wunderground v.1.15,2013-02-02 01:31:00,
2013-02-01 20:33:00,23.0,5.7,30.13,WSW,248,8.0,18.0,47,0.00,,,0.00,Wunderground v.1.15,2013-02-02 01:33:00,
2013-02-01 20:35:00,22.9,6.1,30.13,NNW,340,13.0,18.0,48,0.00,,,0.00,Wunderground v.1.15,2013-02-02 01:35:00,
2013-02-01 20:36:00,22.9,5.6,30.14,WSW,257,4.0,18.0,47,0.00,,,0.00,Wunderground v.1.15,2013-02-02 01:36:00,
2013-02-01 20:37:00,22.9,5.6,30.14,West,267,5.0,7.0,47,0.00,,,0.00,Wunderground v.1.15,2013-02-02 01:37:00,
2013-02-01 20:38:00,22.9,5.6,30.14,WSW,239,8.0,10.0,47,0.00,,,0.00,Wunderground v.1.15,2013-02-02 01:38:00,
2013-02-01 20:40:00,22.8,5.6,30.14,North,11,5.0,12.0,47,0.00,,,0.00,Wunderground v.1.15,2013-02-02 01:40:00,
2013-02-01 20:41:00,22.8,5.6,30.14,WNW,298,4.0,12.0,47,0.00,,,0.00,Wunderground v.1.15,2013-02-02 01:41:00,
2013-02-01 20:42:00,22.8,5.6,30.14,WNW,300,3.0,12.0,47,0.00,,,0.00,Wunderground v.1.15,2013-02-02 01:42:00,
2013-02-01 20:43:00,22.8,5.6,30.14,West,263,4.0,12.0,47,0.00,,,0.00,Wunderground v.1.15,2013-02-02 01:43:00,
2013-02-01 20:45:00,22.7,5.9,30.14,WNW,300,8.0,13.0,48,0.00,,,0.00,Wunderground v.1.15,2013-02-02 01:45:00,
2013-02-01 20:47:00,22.7,5.5,30.14,NW,305,4.0,6.0,47,0.00,,,0.00,Wunderground v.1.15,2013-02-02 01:47:00,
2013-02-01 20:48:00,22.7,5.5,30.14,WSW,242,3.0,11.0,47,0.00,,,0.00,Wunderground v.1.15,2013-02-02 01:48:00,
2013-02-01 20:51:00,22.6,5.8,30.14,West,277,10.0,15.0,48,0.00,,,0.00,Wunderground v.1.15,2013-02-02 01:51:00,
2013-02-01 20:52:00,22.6,5.4,30.14,West,273,5.0,15.0,47,0.00,,,0.00,Wunderground v.1.15,2013-02-02 01:52:00,
2013-02-01 20:53:00,22.6,8.0,30.14,WSW,248,2.0,15.0,53,0.00,,,0.00,Wunderground v.1.15,2013-02-02 01:53:00,
2013-02-01 20:56:00,22.8,7.8,30.15,West,268,12.0,19.0,52,0.00,,,0.00,Wunderground v.1.15,2013-02-02 01:56:00,
2013-02-01 20:57:00,22.7,6.8,30.15,West,268,8.0,8.0,50,0.00,,,0.00,Wunderground v.1.15,2013-02-02 01:57:00,
2013-02-01 20:58:00,22.7,5.9,30.15,West,267,6.0,13.0,48,0.00,,,0.00,Wunderground v.1.15,2013-02-02 01:58:00,
2013-02-01 21:02:00,22.6,5.8,30.14,WSW,257,10.0,14.0,48,0.00,,,0.00,Wunderground v.1.15,2013-02-02 02:02:00,
2013-02-01 21:03:00,22.5,6.2,30.15,WNW,298,7.0,15.0,49,0.00,,,0.00,Wunderground v.1.15,2013-02-02 02:03:00,
2013-02-01 21:07:00,22.4,5.2,30.15,NW,306,7.0,18.0,47,0.00,,,0.00,Wunderground v.1.15,2013-02-02 02:07:00,
2013-02-01 21:08:00,22.4,4.7,30.15,WNW,303,4.0,18.0,46,0.00,,,0.00,Wunderground v.1.15,2013-02-02 02:08:00,
2013-02-01 21:09:00,22.5,5.3,30.15,West,278,14.0,18.0,47,0.00,,,0.00,Wunderground v.1.15,2013-02-02 02:09:00,
2013-02-01 21:12:00,22.5,5.3,30.15,West,264,7.0,18.0,47,0.00,,,0.00,Wunderground v.1.15,2013-02-02 02:12:00,
2013-02-01 21:13:00,22.4,6.1,30.15,West,277,7.0,18.0,49,0.00,,,0.00,Wunderground v.1.15,2013-02-02 02:13:00,
2013-02-01 21:14:00,22.4,5.2,30.15,West,279,1.0,18.0,47,0.00,,,0.00,Wunderground v.1.15,2013-02-02 02:14:00,
2013-02-01 21:17:00,22.4,5.6,30.15,NW,316,4.0,8.0,48,0.00,,,0.00,Wunderground v.1.15,2013-02-02 02:17:00,
2013-02-01 21:18:00,22.5,7.5,30.15,West,275,2.0,8.0,52,0.00,,,0.00,Wunderground v.1.15,2013-02-02 02:18:00,
2013-02-01 21:19:00,22.4,6.5,30.15,West,275,2.0,8.0,50,0.00,,,0.00,Wunderground v.1.15,2013-02-02 02:19:00,
2013-02-01 21:23:00,22.5,9.1,30.15,WSW,252,9.0,9.0,56,0.00,,,0.00,Wunderground v.1.15,2013-02-02 02:23:00,
2013-02-01 21:24:00,22.5,6.6,30.15,WSW,256,7.0,13.0,50,0.00,,,0.00,Wunderground v.1.15,2013-02-02 02:24:00,
2013-02-01 21:28:00,22.2,5.0,30.16,West,277,8.0,12.0,47,0.00,,,0.00,Wunderground v.1.15,2013-02-02 02:28:00,
2013-02-01 21:29:00,22.2,5.5,30.16,WNW,289,4.0,12.0,48,0.00,,,0.00,Wunderground v.1.15,2013-02-02 02:29:00,
2013-02-01 21:30:00,22.1,5.4,30.16,West,260,3.0,12.0,48,0.00,,,0.00,Wunderground v.1.15,2013-02-02 02:30:00,
2013-02-01 21:33:00,22.0,5.3,30.16,West,277,4.0,12.0,48,0.00,,,0.00,Wunderground v.1.15,2013-02-02 02:33:00,
2013-02-01 21:34:00,22.0,5.3,30.16,West,278,3.0,12.0,48,0.00,,,0.00,Wunderground v.1.15,2013-02-02 02:34:00,
2013-02-01 21:35:00,21.9,5.2,30.16,NW,304,4.0,12.0,48,0.00,,,0.00,Wunderground v.1.15,2013-02-02 02:35:00,
2013-02-01 21:38:00,21.8,5.5,30.16,NW,306,3.0,6.0,49,0.00,,,0.00,Wunderground v.1.15,2013-02-02 02:38:00,
2013-02-01 21:39:00,21.8,5.5,30.16,WSW,246,5.0,6.0,49,0.00,,,0.00,Wunderground v.1.15,2013-02-02 02:39:00,
2013-02-01 21:40:00,21.8,5.5,30.16,WSW,251,4.0,6.0,49,0.00,,,0.00,Wunderground v.1.15,2013-02-02 02:40:00,
2013-02-01 21:44:00,21.7,5.5,30.16,WSW,257,13.0,15.0,49,0.00,,,0.00,Wunderground v.1.15,2013-02-02 02:44:00,
2013-02-01 21:45:00,21.7,5.0,30.16,WSW,238,2.0,15.0,48,0.00,,,0.00,Wunderground v.1.15,2013-02-02 02:45:00,
2013-02-01 21:49:00,21.7,5.0,30.17,West,269,8.0,17.0,48,0.00,,,0.00,Wunderground v.1.15,2013-02-02 02:49:00,
2013-02-01 21:50:00,21.7,4.5,30.17,WNW,283,9.0,17.0,47,0.00,,,0.00,Wunderground v.1.15,2013-02-02 02:50:00,
2013-02-01 21:54:00,21.6,4.4,30.16,NNW,334,7.0,17.0,47,0.00,,,0.00,Wunderground v.1.15,2013-02-02 02:54:00,
2013-02-01 21:55:00,21.6,4.4,30.16,West,278,15.0,17.0,47,0.00,,,0.00,Wunderground v.1.15,2013-02-02 02:55:00,
2013-02-01 21:56:00,21.6,4.4,30.16,NW,316,9.0,17.0,47,0.00,,,0.00,Wunderground v.1.15,2013-02-02 02:56:00,
2013-02-01 21:59:00,21.6,4.0,30.17,NW,306,12.0,18.0,46,0.00,,,0.00,Wunderground v.1.15,2013-02-02 02:59:00,
2013-02-01 22:00:00,21.6,4.0,30.17,West,264,12.0,23.0,46,0.00,,,0.00,Wunderground v.1.15,2013-02-02 03:00:00,
2013-02-01 22:01:00,21.6,4.0,30.17,WNW,284,17.0,23.0,46,0.00,,,0.00,Wunderground v.1.15,2013-02-02 03:01:00,
2013-02-01 22:04:00,21.6,4.0,30.17,WNW,284,13.0,23.0,46,0.00,,,0.00,Wunderground v.1.15,2013-02-02 03:04:00,
2013-02-01 22:06:00,21.5,3.9,30.17,NW,314,4.0,23.0,46,0.00,,,0.00,Wunderground v.1.15,2013-02-02 03:06:00,
2013-02-01 22:10:00,21.5,3.9,30.17,WSW,244,7.0,19.0,46,0.00,,,0.00,Wunderground v.1.15,2013-02-02 03:10:00,
2013-02-01 22:11:00,21.4,3.8,30.17,West,268,5.0,19.0,46,0.00,,,0.00,Wunderground v.1.15,2013-02-02 03:11:00,
2013-02-01 22:13:00,21.4,4.3,30.17,WNW,293,6.0,19.0,47,0.00,,,0.00,Wunderground v.1.15,2013-02-02 03:13:00,
2013-02-01 22:15:00,21.3,4.2,30.17,WNW,302,13.0,19.0,47,0.00,,,0.00,Wunderground v.1.15,2013-02-02 03:15:00,
2013-02-01 22:16:00,21.3,3.7,30.17,WNW,296,8.0,19.0,46,0.00,,,0.00,Wunderground v.1.15,2013-02-02 03:16:00,
2013-02-01 22:17:00,21.3,3.7,30.17,West,265,8.0,8.0,46,0.00,,,0.00,Wunderground v.1.15,2013-02-02 03:17:00,
2013-02-01 22:18:00,21.3,3.7,30.17,WNW,296,6.0,15.0,46,0.00,,,0.00,Wunderground v.1.15,2013-02-02 03:18:00,
2013-02-01 22:20:00,21.2,3.6,30.17,NW,305,3.0,15.0,46,0.00,,,0.00,Wunderground v.1.15,2013-02-02 03:20:00,
2013-02-01 22:22:00,21.2,4.1,30.18,WNW,296,6.0,15.0,47,0.00,,,0.00,Wunderground v.1.15,2013-02-02 03:22:00,
2013-02-01 22:24:00,21.2,4.1,30.18,WNW,291,6.0,15.0,47,0.00,,,0.00,Wunderground v.1.15,2013-02-02 03:24:00,
2013-02-01 22:25:00,21.2,4.1,30.17,West,269,7.0,16.0,47,0.00,,,0.00,Wunderground v.1.15,2013-02-02 03:25:00,
2013-02-01 22:27:00,21.2,4.1,30.17,West,261,13.0,13.0,47,0.00,,,0.00,Wunderground v.1.15,2013-02-02 03:27:00,
2013-02-01 22:30:00,21.2,4.1,30.17,West,277,2.0,16.0,47,0.00,,,0.00,Wunderground v.1.15,2013-02-02 03:30:00,
2013-02-01 22:32:00,21.1,4.0,30.17,WSW,242,4.0,16.0,47,0.00,,,0.00,Wunderground v.1.15,2013-02-02 03:32:00,
2013-02-01 22:33:00,21.1,4.0,30.18,West,272,6.0,16.0,47,0.00,,,0.00,Wunderground v.1.15,2013-02-02 03:33:00,
2013-02-01 22:35:00,21.1,4.4,30.18,West,270,8.0,16.0,48,0.00,,,0.00,Wunderground v.1.15,2013-02-02 03:35:00,
2013-02-01 22:38:00,21.0,4.4,30.18,WSW,257,4.0,6.0,48,0.00,,,0.00,Wunderground v.1.15,2013-02-02 03:38:00,
2013-02-01 22:40:00,20.9,4.3,30.18,West,259,2.0,6.0,48,0.00,,,0.00,Wunderground v.1.15,2013-02-02 03:40:00,
2013-02-01 22:41:00,20.9,4.3,30.18,West,277,2.0,6.0,48,0.00,,,0.00,Wunderground v.1.15,2013-02-02 03:41:00,
2013-02-01 22:43:00,20.8,4.6,30.18,WSW,257,3.0,7.0,49,0.00,,,0.00,Wunderground v.1.15,2013-02-02 03:43:00,
2013-02-01 22:44:00,20.8,4.6,30.18,WSW,258,4.0,7.0,49,0.00,,,0.00,Wunderground v.1.15,2013-02-02 03:44:00,
2013-02-01 22:46:00,20.7,4.5,30.18,WSW,246,5.0,7.0,49,0.00,,,0.00,Wunderground v.1.15,2013-02-02 03:46:00,
2013-02-01 22:47:00,20.7,4.5,30.18,WSW,252,1.0,4.0,49,0.00,,,0.00,Wunderground v.1.15,2013-02-02 03:47:00,
2013-02-01 22:49:00,20.6,4.9,30.18,WSW,257,2.0,5.0,50,0.00,,,0.00,Wunderground v.1.15,2013-02-02 03:49:00,
2013-02-01 22:51:00,20.5,4.8,30.19,WSW,246,6.0,6.0,50,0.00,,,0.00,Wunderground v.1.15,2013-02-02 03:51:00,
2013-02-01 22:52:00,20.5,4.8,30.19,WNW,294,1.0,6.0,50,0.00,,,0.00,Wunderground v.1.15,2013-02-02 03:52:00,
2013-02-01 22:54:00,20.5,5.2,30.19,WSW,250,7.0,7.0,51,0.00,,,0.00,Wunderground v.1.15,2013-02-02 03:54:00,
2013-02-01 22:55:00,20.4,5.1,30.19,WSW,246,0.0,7.0,51,0.00,,,0.00,Wunderground v.1.15,2013-02-02 03:55:00,
2013-02-01 22:56:00,20.4,5.1,30.19,WSW,255,3.0,7.0,51,0.00,,,0.00,Wunderground v.1.15,2013-02-02 03:56:00,
2013-02-01 22:57:00,20.4,5.1,30.19,WSW,255,3.0,3.0,51,0.00,,,0.00,Wunderground v.1.15,2013-02-02 03:57:00,
2013-02-01 22:59:00,20.4,5.1,30.19,West,265,4.0,8.0,51,0.00,,,0.00,Wunderground v.1.15,2013-02-02 03:59:00,
2013-02-01 23:00:00,20.3,5.0,30.19,West,259,3.0,8.0,51,0.00,,,0.00,Wunderground v.1.15,2013-02-02 04:00:00,
2013-02-01 23:01:00,20.4,6.4,30.19,West,277,3.0,8.0,54,0.00,,,0.00,Wunderground v.1.15,2013-02-02 04:01:00,
2013-02-01 23:02:00,20.4,7.2,30.19,WNW,284,2.0,8.0,56,0.00,,,0.00,Wunderground v.1.15,2013-02-02 04:02:00,
2013-02-01 23:04:00,20.4,6.0,30.19,West,270,6.0,8.0,53,0.00,,,0.00,Wunderground v.1.15,2013-02-02 04:04:00,
2013-02-01 23:05:00,20.4,6.8,30.19,WSW,252,3.0,9.0,55,0.00,,,0.00,Wunderground v.1.15,2013-02-02 04:05:00,
2013-02-01 23:06:00,20.5,7.3,30.19,WSW,258,3.0,9.0,56,0.00,,,0.00,Wunderground v.1.15,2013-02-02 04:06:00,
2013-02-01 23:08:00,20.5,6.9,30.19,WSW,248,4.0,9.0,55,0.00,,,0.00,Wunderground v.1.15,2013-02-02 04:08:00,
2013-02-01 23:09:00,20.5,6.1,30.19,SW,217,2.0,9.0,53,0.00,,,0.00,Wunderground v.1.15,2013-02-02 04:09:00,
2013-02-01 23:10:00,20.6,8.1,30.19,WNW,300,4.0,9.0,58,0.00,,,0.00,Wunderground v.1.15,2013-02-02 04:10:00,
2013-02-01 23:11:00,20.7,8.2,30.19,WSW,252,10.0,13.0,58,0.00,,,0.00,Wunderground v.1.15,2013-02-02 04:11:00,
2013-02-01 23:13:00,20.6,7.8,30.19,WSW,238,2.0,13.0,57,0.00,,,0.00,Wunderground v.1.15,2013-02-02 04:13:00,
2013-02-01 23:14:00,20.9,10.6,30.19,WSW,240,2.0,13.0,64,0.00,,,0.00,Wunderground v.1.15,2013-02-02 04:14:00,
2013-02-01 23:15:00,20.9,11.7,30.19,SW,232,2.0,13.0,67,0.00,,,0.00,Wunderground v.1.15,2013-02-02 04:15:00,
2013-02-01 23:16:00,20.9,9.5,30.19,WNW,288,6.0,13.0,61,0.00,,,0.00,Wunderground v.1.15,2013-02-02 04:16:00,
2013-02-01 23:18:00,20.7,7.1,30.19,West,276,3.0,6.0,55,0.00,,,0.00,Wunderground v.1.15,2013-02-02 04:18:00,
2013-02-01 23:19:00,20.7,7.5,30.19,SW,225,4.0,7.0,56,0.00,,,0.00,Wunderground v.1.15,2013-02-02 04:19:00,
2013-02-01 23:21:00,20.8,9.8,30.19,NNW,343,6.0,10.0,62,0.00,,,0.00,Wunderground v.1.15,2013-02-02 04:21:00,
2013-02-01 23:22:00,20.9,9.2,30.20,WNW,284,5.0,10.0,60,0.00,,,0.00,Wunderground v.1.15,2013-02-02 04:22:00,
2013-02-01 23:23:00,20.9,9.2,30.20,NW,325,8.0,10.0,60,0.00,,,0.00,Wunderground v.1.15,2013-02-02 04:23:00,
2013-02-01 23:25:00,20.7,7.1,30.19,West,265,9.0,10.0,55,0.00,,,0.00,Wunderground v.1.15,2013-02-02 04:25:00,
2013-02-01 23:26:00,20.6,6.6,30.19,WSW,257,4.0,10.0,54,0.00,,,0.00,Wunderground v.1.15,2013-02-02 04:26:00,
2013-02-01 23:27:00,20.4,6.4,30.19,West,261,3.0,7.0,54,0.00,,,0.00,Wunderground v.1.15,2013-02-02 04:27:00,
2013-02-01 23:28:00,20.4,6.4,30.19,West,261,5.0,7.0,54,0.00,,,0.00,Wunderground v.1.15,2013-02-02 04:28:00,
2013-02-01 23:30:00,20.3,7.1,30.19,West,260,6.0,10.0,56,0.00,,,0.00,Wunderground v.1.15,2013-02-02 04:30:00,
2013-02-01 23:31:00,20.3,6.7,30.19,West,267,4.0,10.0,55,0.00,,,0.00,Wunderground v.1.15,2013-02-02 04:31:00,
2013-02-01 23:32:00,20.2,6.6,30.20,West,266,2.0,10.0,55,0.00,,,0.00,Wunderground v.1.15,2013-02-02 04:32:00,
2013-02-01 23:33:00,20.2,7.0,30.20,West,276,6.0,10.0,56,0.00,,,0.00,Wunderground v.1.15,2013-02-02 04:33:00,
2013-02-01 23:35:00,20.1,6.5,30.19,West,277,3.0,11.0,55,0.00,,,0.00,Wunderground v.1.15,2013-02-02 04:35:00,
2013-02-01 23:36:00,20.1,6.1,30.20,West,261,4.0,11.0,54,0.00,,,0.00,Wunderground v.1.15,2013-02-02 04:36:00,
2013-02-01 23:38:00,20.0,6.0,30.20,NNW,337,2.0,7.0,54,0.00,,,0.00,Wunderground v.1.15,2013-02-02 04:38:00,
2013-02-01 23:40:00,20.0,6.4,30.20,NW,323,1.0,7.0,55,0.00,,,0.00,Wunderground v.1.15,2013-02-02 04:40:00,
2013-02-01 23:42:00,20.0,6.4,30.20,WSW,255,7.0,7.0,55,0.00,,,0.00,Wunderground v.1.15,2013-02-02 04:42:00,
2013-02-01 23:43:00,19.9,6.3,30.20,WSW,255,1.0,7.0,55,0.00,,,0.00,Wunderground v.1.15,2013-02-02 04:43:00,
2013-02-01 23:44:00,19.9,6.3,30.20,WSW,238,6.0,7.0,55,0.00,,,0.00,Wunderground v.1.15,2013-02-02 04:44:00,
2013-02-01 23:45:00,19.9,6.3,30.19,WSW,246,3.0,9.0,55,0.00,,,0.00,Wunderground v.1.15,2013-02-02 04:45:00,
2013-02-01 23:46:00,19.7,6.9,30.20,West,264,4.0,12.0,57,0.00,,,0.00,Wunderground v.1.15,2013-02-02 04:46:00,
2013-02-01 23:47:00,19.8,6.2,30.20,WSW,257,7.0,7.0,55,0.00,,,0.00,Wunderground v.1.15,2013-02-02 04:47:00,
2013-02-01 23:48:00,19.8,6.2,30.20,WSW,250,4.0,7.0,55,0.00,,,0.00,Wunderground v.1.15,2013-02-02 04:48:00,
2013-02-01 23:49:00,19.8,6.2,30.20,West,262,6.0,7.0,55,0.00,,,0.00,Wunderground v.1.15,2013-02-02 04:49:00,
2013-02-01 23:50:00,19.7,6.9,30.20,WSW,244,5.0,6.0,57,0.00,,,0.00,Wunderground v.1.15,2013-02-02 04:50:00,
2013-02-01 23:51:00,19.8,6.2,30.20,WSW,258,5.0,10.0,55,0.00,,,0.00,Wunderground v.1.15,2013-02-02 04:51:00,
2013-02-01 23:53:00,19.8,6.2,30.20,West,273,4.0,11.0,55,0.00,,,0.00,Wunderground v.1.15,2013-02-02 04:53:00,
2013-02-01 23:54:00,19.8,6.6,30.20,WSW,238,6.0,11.0,56,0.00,,,0.00,Wunderground v.1.15,2013-02-02 04:54:00,
2013-02-01 23:56:00,19.8,6.6,30.20,West,268,3.0,11.0,56,0.00,,,0.00,Wunderground v.1.15,2013-02-02 04:56:00,
2013-02-01 23:58:00,19.7,6.5,30.20,West,271,8.0,8.0,56,0.00,,,0.00,Wunderground v.1.15,2013-02-02 04:58:00,
2013-02-01 23:59:00,19.7,6.5,30.20,West,259,4.0,12.0,56,0.00,,,0.00,Wunderground v.1.15,2013-02-02 04:59:00,